Time,TemperatureF,DewpointF,PressureIn,WindDirection,WindDirectionDegrees,WindSpeedMPH,WindSpeedGustMPH,Humidity,HourlyPrecipIn,Conditions,Clouds,dailyrainin,SoftwareType,DateUTC
2013-03-06 00:00:00,36.5,24.0,29.29,SSE,158,0.0,0.0,60,0.00,,---,0.00,VWS V13.01,2013-03-06 05:00:00,
2013-03-06 00:05:00,36.3,24.2,29.29,SSE,158,0.0,0.0,61,0.00,,---,0.00,VWS V13.01,2013-03-06 05:05:00,
2013-03-06 00:10:00,36.3,24.2,29.29,SSE,158,0.0,0.0,61,0.00,,---,0.00,VWS V13.01,2013-03-06 05:10:00,
2013-03-06 00:11:00,36.3,24.2,29.29,SSE,158,0.0,0.0,61,0.00,,---,0.00,VWS V13.01,2013-03-06 05:11:00,
2013-03-06 00:15:00,36.3,24.2,29.29,SSE,158,0.0,0.0,61,0.00,,---,0.00,VWS V13.01,2013-03-06 05:15:00,
2013-03-06 00:16:00,36.3,24.2,29.29,SSE,158,0.0,0.0,61,0.00,,---,0.00,VWS V13.01,2013-03-06 05:16:00,
2013-03-06 00:20:00,36.3,24.2,29.29,SSE,158,0.0,0.0,61,0.00,,---,0.00,VWS V13.01,2013-03-06 05:20:00,
2013-03-06 00:21:00,36.3,24.2,29.29,SSE,158,0.0,0.0,61,0.00,,---,0.00,VWS V13.01,2013-03-06 05:21:00,
2013-03-06 00:25:00,36.1,24.4,29.29,SSE,158,0.0,0.0,62,0.00,,---,0.00,VWS V13.01,2013-03-06 05:25:00,
2013-03-06 00:26:00,36.1,24.4,29.29,SSE,158,0.0,0.0,62,0.00,,---,0.00,VWS V13.01,2013-03-06 05:26:00,
2013-03-06 00:30:00,36.1,24.4,29.29,SSE,158,0.0,0.0,62,0.00,,---,0.00,VWS V13.01,2013-03-06 05:30:00,
2013-03-06 00:31:00,36.1,24.4,29.29,SSE,158,0.0,0.0,62,0.00,,---,0.00,VWS V13.01,2013-03-06 05:31:00,
2013-03-06 00:32:00,36.1,24.4,29.29,SSE,158,0.0,0.0,62,0.00,,---,0.00,VWS V13.01,2013-03-06 05:32:00,
2013-03-06 00:36:00,36.1,24.4,29.29,SSE,158,0.0,0.0,62,0.00,,---,0.00,VWS V13.01,2013-03-06 05:36:00,
2013-03-06 00:37:00,36.1,24.4,29.29,SSE,158,0.0,0.0,62,0.00,,---,0.00,VWS V13.01,2013-03-06 05:37:00,
2013-03-06 00:41:00,36.1,24.4,29.29,SSE,158,0.0,0.0,62,0.00,,---,0.00,VWS V13.01,2013-03-06 05:41:00,
2013-03-06 00:42:00,36.1,24.4,29.29,SSE,158,0.0,0.0,62,0.00,,---,0.00,VWS V13.01,2013-03-06 05:42:00,
2013-03-06 00:46:00,36.1,24.4,29.29,SSE,158,0.0,0.0,62,0.00,,---,0.00,VWS V13.01,2013-03-06 05:46:00,
2013-03-06 00:47:00,35.6,23.9,29.29,SSE,158,0.0,0.0,62,0.00,,---,0.00,VWS V13.01,2013-03-06 05:47:00,
2013-03-06 00:51:00,35.6,23.9,29.29,SSW,202,0.0,0.0,62,0.00,,---,0.00,VWS V13.01,2013-03-06 05:51:00,
2013-03-06 00:52:00,35.6,23.9,29.29,SSW,202,0.0,0.0,62,0.00,,---,0.00,VWS V13.01,2013-03-06 05:52:00,
2013-03-06 00:53:00,35.6,23.5,29.29,SSW,202,0.0,0.0,61,0.00,,---,0.00,VWS V13.01,2013-03-06 05:53:00,
2013-03-06 00:56:00,35.2,23.5,29.29,SSW,202,0.0,0.0,62,0.00,,---,0.00,VWS V13.01,2013-03-06 05:56:00,
2013-03-06 00:57:00,35.2,23.5,29.29,SSE,158,0.0,0.0,62,0.00,,---,0.00,VWS V13.01,2013-03-06 05:57:00,
2013-03-06 00:58:00,35.2,23.5,29.29,SSE,158,0.0,0.0,62,0.00,,---,0.00,VWS V13.01,2013-03-06 05:58:00,
2013-03-06 01:01:00,35.1,23.4,29.29,SSE,158,0.0,0.0,62,0.00,,---,0.00,VWS V13.01,2013-03-06 06:01:00,
2013-03-06 01:02:00,35.1,23.4,29.29,SSE,158,0.0,0.0,62,0.00,,---,0.00,VWS V13.01,2013-03-06 06:02:00,
2013-03-06 01:03:00,35.1,23.4,29.29,SSE,158,0.0,0.0,62,0.00,,---,0.00,VWS V13.01,2013-03-06 06:03:00,
2013-03-06 01:06:00,35.1,23.4,29.29,SSE,158,0.0,0.0,62,0.00,,---,0.00,VWS V13.01,2013-03-06 06:06:00,
2013-03-06 01:07:00,35.1,23.4,29.29,SSE,158,0.0,0.0,62,0.00,,---,0.00,VWS V13.01,2013-03-06 06:07:00,
2013-03-06 01:08:00,35.1,23.4,29.29,SSE,158,0.0,0.0,62,0.00,,---,0.00,VWS V13.01,2013-03-06 06:08:00,
2013-03-06 01:09:00,35.1,23.4,29.29,SSE,158,0.0,0.0,62,0.00,,---,0.00,VWS V13.01,2013-03-06 06:09:00,
2013-03-06 01:12:00,35.1,23.4,29.29,SSE,158,0.0,0.0,62,0.00,,---,0.00,VWS V13.01,2013-03-06 06:12:00,
2013-03-06 01:13:00,35.1,23.4,29.29,SSE,158,0.0,0.0,62,0.00,,---,0.00,VWS V13.01,2013-03-06 06:13:00,
2013-03-06 01:14:00,35.1,23.4,29.29,SSE,158,0.0,0.0,62,0.00,,---,0.00,VWS V13.01,2013-03-06 06:14:00,
2013-03-06 01:17:00,35.1,23.4,29.29,SSE,158,0.0,0.0,62,0.00,,---,0.00,VWS V13.01,2013-03-06 06:17:00,
2013-03-06 01:18:00,35.1,23.4,29.29,SSE,158,0.0,0.0,62,0.00,,---,0.00,VWS V13.01,2013-03-06 06:18:00,
2013-03-06 01:19:00,35.1,23.4,29.29,SSE,158,0.0,0.0,62,0.00,,---,0.00,VWS V13.01,2013-03-06 06:19:00,
2013-03-06 01:23:00,35.2,23.5,29.29,SSE,158,0.0,0.0,62,0.00,,---,0.00,VWS V13.01,2013-03-06 06:23:00,
2013-03-06 01:24:00,35.2,23.5,29.29,SSE,158,0.0,0.0,62,0.00,,---,0.00,VWS V13.01,2013-03-06 06:24:00,
2013-03-06 01:28:00,35.2,23.5,29.29,SSE,158,0.0,0.0,62,0.00,,---,0.00,VWS V13.01,2013-03-06 06:28:00,
2013-03-06 01:29:00,35.2,23.5,29.29,SSE,158,0.0,0.0,62,0.00,,---,0.00,VWS V13.01,2013-03-06 06:29:00,
2013-03-06 01:33:00,35.2,23.5,29.29,SSE,158,0.0,0.0,62,0.00,,---,0.00,VWS V13.01,2013-03-06 06:33:00,
2013-03-06 01:34:00,35.2,23.5,29.29,SSE,158,0.0,0.0,62,0.00,,---,0.00,VWS V13.01,2013-03-06 06:34:00,
2013-03-06 01:38:00,35.2,23.5,29.29,SSE,158,0.0,0.0,62,0.00,,---,0.00,VWS V13.01,2013-03-06 06:38:00,
2013-03-06 01:39:00,35.2,23.5,29.29,SSE,158,0.0,0.0,62,0.00,,---,0.00,VWS V13.01,2013-03-06 06:39:00,
2013-03-06 01:43:00,35.2,23.5,29.29,SSE,158,0.0,0.0,62,0.00,,---,0.00,VWS V13.01,2013-03-06 06:43:00,
2013-03-06 01:44:00,35.2,23.5,29.29,SSE,158,0.0,0.0,62,0.00,,---,0.00,VWS V13.01,2013-03-06 06:44:00,
2013-03-06 01:48:00,35.6,23.9,29.29,SSE,158,0.0,0.0,62,0.00,,---,0.00,VWS V13.01,2013-03-06 06:48:00,
2013-03-06 01:49:00,35.6,24.3,29.29,SSE,158,0.0,0.0,63,0.00,,---,0.00,VWS V13.01,2013-03-06 06:49:00,
2013-03-06 01:53:00,35.6,24.3,29.29,SSE,158,0.0,0.0,63,0.00,,---,0.00,VWS V13.01,2013-03-06 06:53:00,
2013-03-06 01:54:00,35.8,24.4,29.29,SSE,158,0.0,0.0,63,0.00,,---,0.00,VWS V13.01,2013-03-06 06:54:00,
2013-03-06 01:55:00,35.8,24.4,29.29,SSE,158,0.0,0.0,63,0.00,,---,0.00,VWS V13.01,2013-03-06 06:55:00,
2013-03-06 01:58:00,35.8,24.4,29.29,SW,225,0.0,0.0,63,0.00,,---,0.00,VWS V13.01,2013-03-06 06:58:00,
2013-03-06 01:59:00,35.8,24.4,29.29,SW,225,0.0,0.0,63,0.00,,---,0.00,VWS V13.01,2013-03-06 06:59:00,
2013-03-06 02:00:00,35.8,24.4,29.29,SW,225,0.0,0.0,63,0.00,,---,0.00,VWS V13.01,2013-03-06 07:00:00,
2013-03-06 02:03:00,35.8,24.4,29.29,SW,225,0.0,0.0,63,0.00,,---,0.00,VWS V13.01,2013-03-06 07:03:00,
2013-03-06 02:04:00,35.8,24.4,29.29,SW,225,0.0,0.0,63,0.00,,---,0.00,VWS V13.01,2013-03-06 07:04:00,
2013-03-06 02:05:00,35.8,24.4,29.29,SW,225,0.0,0.0,63,0.00,,---,0.00,VWS V13.01,2013-03-06 07:05:00,
2013-03-06 02:08:00,35.8,24.4,29.26,South,180,0.0,0.0,63,0.00,,---,0.00,VWS V13.01,2013-03-06 07:08:00,
2013-03-06 02:09:00,35.8,24.4,29.26,South,180,0.0,0.0,63,0.00,,---,0.00,VWS V13.01,2013-03-06 07:09:00,
2013-03-06 02:10:00,35.8,24.4,29.26,South,180,0.0,0.0,63,0.00,,---,0.00,VWS V13.01,2013-03-06 07:10:00,
2013-03-06 02:13:00,35.8,24.4,29.26,South,180,0.0,0.0,63,0.00,,---,0.00,VWS V13.01,2013-03-06 07:13:00,
2013-03-06 02:14:00,35.8,24.4,29.26,SSE,158,0.0,0.0,63,0.00,,---,0.00,VWS V13.01,2013-03-06 07:14:00,
2013-03-06 02:15:00,35.8,24.4,29.26,SSE,158,0.0,0.0,63,0.00,,---,0.00,VWS V13.01,2013-03-06 07:15:00,
2013-03-06 02:18:00,35.8,24.4,29.26,SSE,158,0.0,0.0,63,0.00,,---,0.00,VWS V13.01,2013-03-06 07:18:00,
2013-03-06 02:19:00,35.8,24.4,29.26,SSE,158,0.0,0.0,63,0.00,,---,0.00,VWS V13.01,2013-03-06 07:19:00,
2013-03-06 02:20:00,35.8,24.4,29.26,SSE,158,0.0,0.0,63,0.00,,---,0.00,VWS V13.01,2013-03-06 07:20:00,
2013-03-06 02:24:00,35.8,24.4,29.26,SSE,158,0.0,0.0,63,0.00,,---,0.00,VWS V13.01,2013-03-06 07:24:00,
2013-03-06 02:25:00,35.8,24.4,29.26,SSE,158,0.0,0.0,63,0.00,,---,0.00,VWS V13.01,2013-03-06 07:25:00,
2013-03-06 02:29:00,35.8,24.4,29.26,SSE,158,0.0,0.0,63,0.00,,---,0.00,VWS V13.01,2013-03-06 07:29:00,
2013-03-06 02:30:00,35.8,24.4,29.26,SSE,158,0.0,0.0,63,0.00,,---,0.00,VWS V13.01,2013-03-06 07:30:00,
2013-03-06 02:31:00,35.8,24.4,29.26,SSE,158,0.0,0.0,63,0.00,,---,0.00,VWS V13.01,2013-03-06 07:31:00,
2013-03-06 02:34:00,35.8,24.4,29.26,SSE,158,0.0,0.0,63,0.00,,---,0.00,VWS V13.01,2013-03-06 07:34:00,
2013-03-06 02:35:00,35.8,24.4,29.26,SSE,158,0.0,0.0,63,0.00,,---,0.00,VWS V13.01,2013-03-06 07:35:00,
2013-03-06 02:36:00,35.8,24.4,29.26,SE,135,0.0,0.0,63,0.00,,---,0.00,VWS V13.01,2013-03-06 07:36:00,
2013-03-06 02:39:00,35.8,24.4,29.26,SSW,202,0.0,0.0,63,0.00,,---,0.00,VWS V13.01,2013-03-06 07:39:00,
2013-03-06 02:40:00,35.8,24.4,29.26,SSW,202,0.0,0.0,63,0.00,,---,0.00,VWS V13.01,2013-03-06 07:40:00,
2013-03-06 02:41:00,35.8,24.4,29.26,South,180,0.0,0.0,63,0.00,,---,0.00,VWS V13.01,2013-03-06 07:41:00,
2013-03-06 02:44:00,35.8,24.4,29.26,South,180,0.0,0.0,63,0.00,,---,0.00,VWS V13.01,2013-03-06 07:44:00,
2013-03-06 02:45:00,35.8,24.4,29.26,SSE,158,0.0,0.0,63,0.00,,---,0.00,VWS V13.01,2013-03-06 07:45:00,
2013-03-06 02:46:00,35.8,24.4,29.26,SSE,158,0.0,0.0,63,0.00,,---,0.00,VWS V13.01,2013-03-06 07:46:00,
2013-03-06 02:47:00,35.1,24.5,29.26,SSE,158,0.0,0.0,65,0.00,,---,0.00,VWS V13.01,2013-03-06 07:47:00,
2013-03-06 02:49:00,35.1,24.5,29.26,SSE,158,0.0,0.0,65,0.00,,---,0.00,VWS V13.01,2013-03-06 07:49:00,
2013-03-06 02:50:00,35.1,24.5,29.26,SSE,158,0.0,0.0,65,0.00,,---,0.00,VWS V13.01,2013-03-06 07:50:00,
2013-03-06 02:52:00,35.1,24.5,29.26,West,270,0.0,0.0,65,0.00,,---,0.00,VWS V13.01,2013-03-06 07:52:00,
2013-03-06 02:55:00,35.1,24.5,29.26,NE,45,0.0,0.0,65,0.00,,---,0.00,VWS V13.01,2013-03-06 07:55:00,
2013-03-06 02:57:00,35.1,24.5,29.26,NE,45,0.0,0.0,65,0.00,,---,0.00,VWS V13.01,2013-03-06 07:57:00,
2013-03-06 03:00:00,35.1,24.5,29.26,SSW,202,0.0,0.0,65,0.00,,---,0.00,VWS V13.01,2013-03-06 08:00:00,
2013-03-06 03:01:00,35.1,24.5,29.26,SSW,202,0.0,0.0,65,0.00,,---,0.00,VWS V13.01,2013-03-06 08:01:00,
2013-03-06 03:02:00,35.1,24.5,29.26,North,0,1.3,1.3,65,0.00,,---,0.00,VWS V13.01,2013-03-06 08:02:00,
2013-03-06 03:05:00,35.1,24.5,29.26,SSW,202,0.0,0.0,65,0.00,,---,0.00,VWS V13.01,2013-03-06 08:05:00,
2013-03-06 03:06:00,35.1,24.5,29.26,SSE,158,0.0,0.0,65,0.00,,---,0.00,VWS V13.01,2013-03-06 08:06:00,
2013-03-06 03:07:00,35.4,25.2,29.26,SSW,202,0.0,0.0,66,0.00,,---,0.00,VWS V13.01,2013-03-06 08:07:00,
2013-03-06 03:10:00,35.4,25.2,29.26,SSW,202,0.0,0.0,66,0.00,,---,0.00,VWS V13.01,2013-03-06 08:10:00,
2013-03-06 03:11:00,35.4,25.2,29.26,SSW,202,0.0,0.0,66,0.00,,---,0.00,VWS V13.01,2013-03-06 08:11:00,
2013-03-06 03:13:00,35.4,25.2,29.26,SSW,202,0.0,0.0,66,0.00,,---,0.00,VWS V13.01,2013-03-06 08:13:00,
2013-03-06 03:15:00,35.4,25.2,29.26,ENE,68,1.6,1.6,66,0.00,,---,0.00,VWS V13.01,2013-03-06 08:15:00,
2013-03-06 03:16:00,35.4,25.2,29.26,ENE,68,1.6,1.6,66,0.00,,---,0.00,VWS V13.01,2013-03-06 08:16:00,
2013-03-06 03:18:00,35.4,25.2,29.26,ENE,68,1.6,1.6,66,0.00,,---,0.00,VWS V13.01,2013-03-06 08:18:00,
2013-03-06 03:20:00,35.4,25.2,29.26,ENE,68,1.6,1.6,66,0.00,,---,0.00,VWS V13.01,2013-03-06 08:20:00,
2013-03-06 03:21:00,35.4,25.2,29.26,ENE,68,1.6,1.6,66,0.00,,---,0.00,VWS V13.01,2013-03-06 08:21:00,
2013-03-06 03:23:00,35.4,25.2,29.26,SSW,202,0.0,0.0,66,0.00,,---,0.00,VWS V13.01,2013-03-06 08:23:00,
2013-03-06 03:24:00,35.4,25.2,29.26,SSW,202,0.0,0.0,66,0.00,,---,0.00,VWS V13.01,2013-03-06 08:24:00,
2013-03-06 03:25:00,35.4,25.2,29.26,WSW,248,3.8,3.8,66,0.00,,---,0.00,VWS V13.01,2013-03-06 08:25:00,
2013-03-06 03:27:00,35.4,25.2,29.26,WSW,248,3.8,3.8,66,0.00,,---,0.00,VWS V13.01,2013-03-06 08:27:00,
2013-03-06 03:28:00,35.4,25.2,29.26,SSE,158,0.0,0.0,66,0.00,,---,0.00,VWS V13.01,2013-03-06 08:28:00,
2013-03-06 03:29:00,35.4,25.2,29.26,SSE,158,0.0,0.0,66,0.00,,---,0.00,VWS V13.01,2013-03-06 08:29:00,
2013-03-06 03:30:00,35.4,25.2,29.26,SSE,158,0.0,0.0,66,0.00,,---,0.00,VWS V13.01,2013-03-06 08:30:00,
2013-03-06 03:32:00,35.4,25.2,29.26,SSE,158,0.0,0.0,66,0.00,,---,0.00,VWS V13.01,2013-03-06 08:32:00,
2013-03-06 03:33:00,35.4,25.2,29.26,SSE,158,0.0,0.0,66,0.00,,---,0.00,VWS V13.01,2013-03-06 08:33:00,
2013-03-06 03:34:00,35.4,25.2,29.26,SSE,158,0.0,0.0,66,0.00,,---,0.00,VWS V13.01,2013-03-06 08:34:00,
2013-03-06 03:35:00,35.4,25.2,29.26,SSE,158,0.0,0.0,66,0.00,,---,0.00,VWS V13.01,2013-03-06 08:35:00,
2013-03-06 03:37:00,35.4,25.2,29.26,SW,225,0.0,0.0,66,0.00,,---,0.00,VWS V13.01,2013-03-06 08:37:00,
2013-03-06 03:38:00,35.4,25.2,29.26,SW,225,0.0,0.0,66,0.00,,---,0.00,VWS V13.01,2013-03-06 08:38:00,
2013-03-06 03:39:00,35.4,25.2,29.26,SW,225,0.0,0.0,66,0.00,,---,0.00,VWS V13.01,2013-03-06 08:39:00,
2013-03-06 03:41:00,36.0,25.7,29.26,SW,225,0.0,0.0,66,0.00,,---,0.00,VWS V13.01,2013-03-06 08:41:00,
2013-03-06 03:42:00,36.0,25.7,29.26,SW,225,0.0,0.0,66,0.00,,---,0.00,VWS V13.01,2013-03-06 08:42:00,
2013-03-06 03:43:00,36.0,25.7,29.26,SW,225,0.0,0.0,66,0.00,,---,0.00,VWS V13.01,2013-03-06 08:43:00,
2013-03-06 03:44:00,36.0,25.7,29.26,SW,225,0.0,0.0,66,0.00,,---,0.00,VWS V13.01,2013-03-06 08:44:00,
2013-03-06 03:46:00,36.0,25.7,29.26,South,180,0.9,0.9,66,0.00,,---,0.00,VWS V13.01,2013-03-06 08:46:00,
2013-03-06 03:47:00,36.0,25.7,29.26,South,180,0.9,0.9,66,0.00,,---,0.00,VWS V13.01,2013-03-06 08:47:00,
2013-03-06 03:48:00,36.0,25.7,29.26,South,180,0.9,0.9,66,0.00,,---,0.00,VWS V13.01,2013-03-06 08:48:00,
2013-03-06 03:49:00,36.0,25.7,29.26,South,180,0.9,0.9,66,0.00,,---,0.00,VWS V13.01,2013-03-06 08:49:00,
2013-03-06 03:51:00,36.0,25.7,29.26,South,180,0.0,0.0,66,0.00,,---,0.00,VWS V13.01,2013-03-06 08:51:00,
2013-03-06 03:52:00,36.0,25.7,29.23,South,180,0.0,0.0,66,0.00,,---,0.00,VWS V13.01,2013-03-06 08:52:00,
2013-03-06 03:54:00,36.0,25.7,29.23,South,180,0.0,0.0,66,0.00,,---,0.00,VWS V13.01,2013-03-06 08:54:00,
2013-03-06 03:56:00,36.0,25.7,29.23,SSE,158,0.0,0.0,66,0.00,,---,0.00,VWS V13.01,2013-03-06 08:56:00,
2013-03-06 03:57:00,36.0,25.7,29.23,SSE,158,0.0,0.0,66,0.00,,---,0.00,VWS V13.01,2013-03-06 08:57:00,
2013-03-06 03:59:00,36.0,25.7,29.23,SSW,202,0.0,0.0,66,0.00,,---,0.00,VWS V13.01,2013-03-06 08:59:00,
2013-03-06 04:01:00,36.0,25.7,29.23,WNW,292,1.3,1.3,66,0.00,,---,0.00,VWS V13.01,2013-03-06 09:01:00,
2013-03-06 04:03:00,36.1,25.9,29.23,NW,315,0.0,0.0,66,0.00,,---,0.00,VWS V13.01,2013-03-06 09:03:00,
2013-03-06 04:04:00,36.1,25.9,29.23,NW,315,0.0,0.0,66,0.00,,---,0.00,VWS V13.01,2013-03-06 09:04:00,
2013-03-06 04:06:00,36.1,25.9,29.23,ESE,112,0.0,0.0,66,0.00,,---,0.00,VWS V13.01,2013-03-06 09:06:00,
2013-03-06 04:08:00,36.1,25.9,29.23,North,0,2.9,2.9,66,0.00,,---,0.00,VWS V13.01,2013-03-06 09:08:00,
2013-03-06 04:09:00,36.1,25.9,29.23,East,90,1.3,1.3,66,0.00,,---,0.00,VWS V13.01,2013-03-06 09:09:00,
2013-03-06 04:10:00,36.1,25.9,29.23,NNE,22,0.0,0.0,66,0.00,,---,0.00,VWS V13.01,2013-03-06 09:10:00,
2013-03-06 04:12:00,36.1,25.9,29.23,NW,315,2.0,2.0,66,0.00,,---,0.00,VWS V13.01,2013-03-06 09:12:00,
2013-03-06 04:13:00,36.1,25.9,29.23,NW,315,2.0,2.0,66,0.00,,---,0.00,VWS V13.01,2013-03-06 09:13:00,
2013-03-06 04:14:00,36.1,25.9,29.23,SSE,158,0.0,2.0,66,0.00,,---,0.00,VWS V13.01,2013-03-06 09:14:00,
2013-03-06 04:15:00,36.1,25.9,29.23,SSE,158,0.0,0.0,66,0.00,,---,0.00,VWS V13.01,2013-03-06 09:15:00,
2013-03-06 04:17:00,36.1,25.9,29.23,South,180,0.0,0.0,66,0.00,,---,0.00,VWS V13.01,2013-03-06 09:17:00,
2013-03-06 04:18:00,36.1,25.9,29.23,NNW,338,0.9,0.9,66,0.00,,---,0.00,VWS V13.01,2013-03-06 09:18:00,
2013-03-06 04:19:00,36.1,25.9,29.23,South,180,0.0,0.9,66,0.00,,---,0.00,VWS V13.01,2013-03-06 09:19:00,
2013-03-06 04:20:00,36.1,25.9,29.23,South,180,0.0,0.0,66,0.00,,---,0.00,VWS V13.01,2013-03-06 09:20:00,
2013-03-06 04:22:00,36.1,25.9,29.23,South,180,0.0,0.0,66,0.00,,---,0.00,VWS V13.01,2013-03-06 09:22:00,
2013-03-06 04:23:00,36.1,25.9,29.23,South,180,0.0,0.0,66,0.00,,---,0.00,VWS V13.01,2013-03-06 09:23:00,
2013-03-06 04:24:00,36.1,25.9,29.23,SSW,202,2.0,2.0,66,0.00,,---,0.00,VWS V13.01,2013-03-06 09:24:00,
2013-03-06 04:25:00,36.1,25.9,29.23,SSW,202,2.0,2.0,66,0.00,,---,0.00,VWS V13.01,2013-03-06 09:25:00,
2013-03-06 04:28:00,36.1,25.9,29.23,SSW,202,0.0,0.0,66,0.00,,---,0.00,VWS V13.01,2013-03-06 09:28:00,
2013-03-06 04:30:00,36.1,25.9,29.23,SSW,202,0.0,0.0,66,0.00,,---,0.00,VWS V13.01,2013-03-06 09:30:00,
2013-03-06 04:33:00,36.3,26.1,29.23,SW,225,0.9,0.9,66,0.00,,---,0.00,VWS V13.01,2013-03-06 09:33:00,
2013-03-06 04:34:00,36.3,26.1,29.23,SW,225,0.9,0.9,66,0.00,,---,0.00,VWS V13.01,2013-03-06 09:34:00,
2013-03-06 04:35:00,36.3,26.1,29.23,WSW,248,0.0,0.0,66,0.00,,---,0.00,VWS V13.01,2013-03-06 09:35:00,
2013-03-06 04:39:00,36.3,26.1,29.23,WSW,248,0.0,0.0,66,0.00,,---,0.00,VWS V13.01,2013-03-06 09:39:00,
2013-03-06 04:40:00,36.3,26.1,29.23,WSW,248,0.0,0.0,66,0.00,,---,0.00,VWS V13.01,2013-03-06 09:40:00,
2013-03-06 04:44:00,36.3,26.1,29.23,ENE,68,1.3,1.3,66,0.00,,---,0.00,VWS V13.01,2013-03-06 09:44:00,
2013-03-06 04:45:00,36.3,26.1,29.23,ENE,68,1.3,1.3,66,0.00,,---,0.00,VWS V13.01,2013-03-06 09:45:00,
2013-03-06 04:49:00,36.3,26.1,29.23,SSW,202,1.1,1.3,66,0.00,,---,0.00,VWS V13.01,2013-03-06 09:49:00,
2013-03-06 04:50:00,36.3,26.1,29.23,SSW,202,1.1,1.1,66,0.00,,---,0.00,VWS V13.01,2013-03-06 09:50:00,
2013-03-06 04:54:00,36.3,26.1,29.23,South,180,2.5,2.5,66,0.00,,---,0.00,VWS V13.01,2013-03-06 09:54:00,
2013-03-06 04:55:00,36.3,26.1,29.23,SSE,158,0.0,0.0,66,0.00,,---,0.00,VWS V13.01,2013-03-06 09:55:00,
2013-03-06 04:59:00,36.3,26.1,29.23,SSW,202,1.6,1.6,66,0.00,,---,0.00,VWS V13.01,2013-03-06 09:59:00,
2013-03-06 05:00:00,36.3,26.1,29.23,SSW,202,1.6,1.6,66,0.00,,---,0.00,VWS V13.01,2013-03-06 10:00:00,
2013-03-06 05:01:00,36.3,26.1,29.23,SSW,202,1.6,1.6,66,0.00,,---,0.00,VWS V13.01,2013-03-06 10:01:00,
2013-03-06 05:04:00,36.3,26.1,29.23,SE,135,1.1,1.1,66,0.00,,---,0.00,VWS V13.01,2013-03-06 10:04:00,
2013-03-06 05:05:00,36.3,26.1,29.23,NE,45,1.1,1.1,66,0.00,,---,0.00,VWS V13.01,2013-03-06 10:05:00,
2013-03-06 05:06:00,36.3,26.1,29.23,NE,45,1.1,1.1,66,0.00,,---,0.00,VWS V13.01,2013-03-06 10:06:00,
2013-03-06 05:09:00,36.3,26.1,29.23,East,90,0.0,0.0,66,0.00,,---,0.00,VWS V13.01,2013-03-06 10:09:00,
2013-03-06 05:10:00,36.3,26.1,29.23,SSW,202,0.0,0.0,66,0.00,,---,0.00,VWS V13.01,2013-03-06 10:10:00,
2013-03-06 05:11:00,36.3,26.1,29.23,SSW,202,0.0,0.0,66,0.00,,---,0.00,VWS V13.01,2013-03-06 10:11:00,
2013-03-06 05:15:00,36.3,26.1,29.23,SSW,202,0.0,0.0,66,0.00,,---,0.00,VWS V13.01,2013-03-06 10:15:00,
2013-03-06 05:16:00,36.3,26.1,29.23,SSW,202,0.0,0.0,66,0.00,,---,0.00,VWS V13.01,2013-03-06 10:16:00,
2013-03-06 05:17:00,36.3,26.1,29.23,SSW,202,0.0,0.0,66,0.00,,---,0.00,VWS V13.01,2013-03-06 10:17:00,
2013-03-06 05:20:00,36.3,26.1,29.23,NW,315,3.6,3.6,66,0.00,,---,0.00,VWS V13.01,2013-03-06 10:20:00,
2013-03-06 05:21:00,36.3,26.1,29.23,NW,315,3.6,3.6,66,0.00,,---,0.00,VWS V13.01,2013-03-06 10:21:00,
2013-03-06 05:22:00,36.3,26.1,29.23,NW,315,3.6,3.6,66,0.00,,---,0.00,VWS V13.01,2013-03-06 10:22:00,
2013-03-06 05:25:00,36.3,26.1,29.23,NW,315,3.6,3.6,66,0.00,,---,0.00,VWS V13.01,2013-03-06 10:25:00,
2013-03-06 05:26:00,36.3,26.1,29.23,NW,315,3.6,3.6,66,0.00,,---,0.00,VWS V13.01,2013-03-06 10:26:00,
2013-03-06 05:27:00,35.6,26.1,29.23,NW,315,3.6,3.6,68,0.00,,---,0.00,VWS V13.01,2013-03-06 10:27:00,
2013-03-06 05:30:00,35.6,26.1,29.23,NW,315,3.6,3.6,68,0.00,,---,0.00,VWS V13.01,2013-03-06 10:30:00,
2013-03-06 05:31:00,35.6,26.1,29.23,NW,315,3.6,3.6,68,0.00,,---,0.00,VWS V13.01,2013-03-06 10:31:00,
2013-03-06 05:32:00,35.6,26.1,29.23,NW,315,3.6,3.6,68,0.00,,---,0.00,VWS V13.01,2013-03-06 10:32:00,
2013-03-06 05:36:00,35.8,26.3,29.23,NW,315,3.6,3.6,68,0.00,,---,0.00,VWS V13.01,2013-03-06 10:36:00,
2013-03-06 05:37:00,35.8,26.3,29.23,NW,315,3.6,3.6,68,0.00,,---,0.00,VWS V13.01,2013-03-06 10:37:00,
2013-03-06 05:41:00,35.8,26.3,29.23,NE,45,0.0,0.0,68,0.00,,---,0.00,VWS V13.01,2013-03-06 10:41:00,
2013-03-06 05:42:00,35.8,26.3,29.23,East,90,1.6,1.6,68,0.00,,---,0.00,VWS V13.01,2013-03-06 10:42:00,
2013-03-06 05:46:00,35.8,26.3,29.23,East,90,1.6,1.6,68,0.00,,---,0.00,VWS V13.01,2013-03-06 10:46:00,
2013-03-06 05:47:00,35.8,26.3,29.23,East,90,1.6,1.6,68,0.00,,---,0.00,VWS V13.01,2013-03-06 10:47:00,
2013-03-06 05:51:00,35.8,26.3,29.23,East,90,1.6,1.6,68,0.00,,---,0.00,VWS V13.01,2013-03-06 10:51:00,
2013-03-06 05:53:00,35.8,26.3,29.23,East,90,1.6,1.6,68,0.00,,---,0.00,VWS V13.01,2013-03-06 10:53:00,
2013-03-06 05:56:00,35.8,26.3,29.23,NNE,22,0.9,1.6,68,0.00,,---,0.00,VWS V13.01,2013-03-06 10:56:00,
2013-03-06 05:58:00,35.8,26.3,29.23,NNE,22,0.9,0.9,68,0.00,,---,0.00,VWS V13.01,2013-03-06 10:58:00,
2013-03-06 06:01:00,35.8,26.3,29.23,NNE,22,0.9,0.9,68,0.00,,---,0.00,VWS V13.01,2013-03-06 11:01:00,
2013-03-06 06:02:00,35.8,26.3,29.23,NNE,22,0.9,0.9,68,0.00,,---,0.00,VWS V13.01,2013-03-06 11:02:00,
2013-03-06 06:03:00,35.8,26.3,29.23,NNE,22,3.8,3.8,68,0.00,,---,0.00,VWS V13.01,2013-03-06 11:03:00,
2013-03-06 06:07:00,35.8,26.3,29.23,NNE,22,3.8,3.8,68,0.00,,---,0.00,VWS V13.01,2013-03-06 11:07:00,
2013-03-06 06:08:00,35.8,26.3,29.23,SSW,202,0.9,0.9,68,0.00,,---,0.00,VWS V13.01,2013-03-06 11:08:00,
2013-03-06 06:12:00,35.8,26.3,29.23,SSE,158,1.3,1.3,68,0.00,,---,0.00,VWS V13.01,2013-03-06 11:12:00,
2013-03-06 06:13:00,35.8,26.3,29.23,SSE,158,1.3,1.3,68,0.00,,---,0.00,VWS V13.01,2013-03-06 11:13:00,
2013-03-06 06:17:00,35.8,26.3,29.23,SSE,158,1.3,1.3,68,0.00,,---,0.00,VWS V13.01,2013-03-06 11:17:00,
2013-03-06 06:18:00,35.8,26.3,29.23,SSE,158,1.3,1.3,68,0.00,,---,0.00,VWS V13.01,2013-03-06 11:18:00,
2013-03-06 06:23:00,35.8,26.3,29.23,SSE,158,0.9,0.9,68,0.00,,---,0.00,VWS V13.01,2013-03-06 11:23:00,
2013-03-06 06:24:00,35.8,26.3,29.23,SSE,158,0.9,0.9,68,0.00,,---,0.00,VWS V13.01,2013-03-06 11:24:00,
2013-03-06 06:28:00,35.8,26.3,29.23,SSE,158,0.0,0.0,68,0.00,,---,0.00,VWS V13.01,2013-03-06 11:28:00,
2013-03-06 06:29:00,35.8,26.3,29.23,SSE,158,0.0,0.0,68,0.00,,---,0.00,VWS V13.01,2013-03-06 11:29:00,
2013-03-06 06:33:00,35.8,27.0,29.23,SSW,202,0.0,0.0,70,0.00,,---,0.00,VWS V13.01,2013-03-06 11:33:00,
2013-03-06 06:34:00,35.8,27.0,29.23,SSW,202,0.0,0.0,70,0.00,,---,0.00,VWS V13.01,2013-03-06 11:34:00,
2013-03-06 06:39:00,35.8,27.0,29.23,NNW,338,1.6,1.6,70,0.00,,---,0.00,VWS V13.01,2013-03-06 11:39:00,
2013-03-06 06:40:00,35.8,27.0,29.23,NNW,338,1.6,1.6,70,0.00,,---,0.00,VWS V13.01,2013-03-06 11:40:00,
2013-03-06 06:44:00,35.8,27.0,29.23,ESE,112,0.0,1.6,70,0.00,,---,0.00,VWS V13.01,2013-03-06 11:44:00,
2013-03-06 06:45:00,35.8,27.0,29.23,ESE,112,0.0,0.0,70,0.00,,---,0.00,VWS V13.01,2013-03-06 11:45:00,
2013-03-06 06:49:00,35.8,27.0,29.23,ESE,112,0.0,0.0,70,0.00,,---,0.00,VWS V13.01,2013-03-06 11:49:00,
2013-03-06 06:50:00,35.8,27.0,29.23,ESE,112,0.0,0.0,70,0.00,,---,0.00,VWS V13.01,2013-03-06 11:50:00,
2013-03-06 06:54:00,35.8,27.0,29.23,ESE,112,0.0,0.0,70,0.00,,---,0.00,VWS V13.01,2013-03-06 11:54:00,
2013-03-06 06:55:00,35.8,27.0,29.23,ESE,112,0.0,0.0,70,0.00,,---,0.00,VWS V13.01,2013-03-06 11:55:00,
2013-03-06 06:59:00,35.8,27.0,29.23,ESE,112,0.0,0.0,70,0.00,,---,0.00,VWS V13.01,2013-03-06 11:59:00,
2013-03-06 07:00:00,36.0,27.5,29.23,ESE,112,0.0,0.0,71,0.00,,---,0.00,VWS V13.01,2013-03-06 12:00:00,
2013-03-06 07:04:00,36.0,27.5,29.23,SSE,158,0.0,0.0,71,0.00,,---,0.00,VWS V13.01,2013-03-06 12:04:00,
2013-03-06 07:06:00,36.0,27.5,29.23,SSE,158,0.0,0.0,71,0.00,,---,0.00,VWS V13.01,2013-03-06 12:06:00,
2013-03-06 07:09:00,36.0,27.5,29.23,SSE,158,0.0,0.0,71,0.00,,---,0.00,VWS V13.01,2013-03-06 12:09:00,
2013-03-06 07:10:00,36.0,27.5,29.23,SSE,158,0.0,0.0,71,0.00,,---,0.00,VWS V13.01,2013-03-06 12:10:00,
2013-03-06 07:11:00,36.0,27.5,29.23,SSE,158,0.0,0.0,71,0.00,,---,0.00,VWS V13.01,2013-03-06 12:11:00,
2013-03-06 07:14:00,36.1,28.0,29.23,SSE,158,0.0,0.0,72,0.00,,---,0.00,VWS V13.01,2013-03-06 12:14:00,
2013-03-06 07:15:00,36.1,28.0,29.23,SSE,158,0.0,0.0,72,0.00,,---,0.00,VWS V13.01,2013-03-06 12:15:00,
2013-03-06 07:16:00,36.1,28.0,29.23,SSE,158,0.0,0.0,72,0.00,,---,0.00,VWS V13.01,2013-03-06 12:16:00,
2013-03-06 07:19:00,36.1,28.0,29.23,SSE,158,0.0,0.0,72,0.00,,---,0.00,VWS V13.01,2013-03-06 12:19:00,
2013-03-06 07:20:00,36.1,28.0,29.23,SSE,158,0.0,0.0,72,0.00,,---,0.00,VWS V13.01,2013-03-06 12:20:00,
2013-03-06 07:21:00,36.1,28.0,29.23,SSE,158,0.0,0.0,72,0.00,,---,0.00,VWS V13.01,2013-03-06 12:21:00,
2013-03-06 07:25:00,36.1,28.0,29.23,SSE,158,0.0,0.0,72,0.00,,---,0.00,VWS V13.01,2013-03-06 12:25:00,
2013-03-06 07:26:00,36.1,28.0,29.23,SSE,158,2.5,2.5,72,0.00,,---,0.00,VWS V13.01,2013-03-06 12:26:00,
2013-03-06 07:30:00,36.1,28.0,29.23,SSE,158,2.7,2.7,72,0.00,,---,0.00,VWS V13.01,2013-03-06 12:30:00,
2013-03-06 07:31:00,36.1,28.0,29.23,SSE,158,2.7,2.7,72,0.00,,---,0.00,VWS V13.01,2013-03-06 12:31:00,
2013-03-06 07:35:00,36.5,28.0,29.23,South,180,1.1,1.1,71,0.00,,---,0.00,VWS V13.01,2013-03-06 12:35:00,
2013-03-06 07:36:00,36.5,28.0,29.23,South,180,1.1,1.1,71,0.00,,---,0.00,VWS V13.01,2013-03-06 12:36:00,
2013-03-06 07:40:00,36.5,28.0,29.23,SSW,202,0.0,0.0,71,0.00,,---,0.00,VWS V13.01,2013-03-06 12:40:00,
2013-03-06 07:41:00,36.5,28.0,29.23,SSW,202,0.0,0.0,71,0.00,,---,0.00,VWS V13.01,2013-03-06 12:41:00,
2013-03-06 07:42:00,36.5,28.0,29.23,SSW,202,0.0,0.0,71,0.00,,---,0.00,VWS V13.01,2013-03-06 12:42:00,
2013-03-06 07:45:00,36.5,28.0,29.23,SSW,202,0.0,0.0,71,0.00,,---,0.00,VWS V13.01,2013-03-06 12:45:00,
2013-03-06 07:46:00,36.5,28.0,29.23,SSW,202,0.0,0.0,71,0.00,,---,0.00,VWS V13.01,2013-03-06 12:46:00,
2013-03-06 07:47:00,36.5,28.0,29.23,SSW,202,0.0,0.0,71,0.00,,---,0.00,VWS V13.01,2013-03-06 12:47:00,
2013-03-06 07:50:00,36.5,28.0,29.23,SSW,202,0.0,0.0,71,0.00,,---,0.00,VWS V13.01,2013-03-06 12:50:00,
2013-03-06 07:51:00,36.5,28.0,29.23,SSW,202,0.0,0.0,71,0.00,,---,0.00,VWS V13.01,2013-03-06 12:51:00,
2013-03-06 07:52:00,36.5,28.0,29.23,SSW,202,0.0,0.0,71,0.00,,---,0.00,VWS V13.01,2013-03-06 12:52:00,
2013-03-06 07:56:00,36.7,28.2,29.23,SSW,202,0.0,0.0,71,0.00,,---,0.00,VWS V13.01,2013-03-06 12:56:00,
2013-03-06 07:57:00,36.7,28.2,29.23,SSW,202,0.0,0.0,71,0.00,,---,0.00,VWS V13.01,2013-03-06 12:57:00,
2013-03-06 08:01:00,36.7,28.5,29.23,SSW,202,0.0,0.0,72,0.00,,---,0.00,VWS V13.01,2013-03-06 13:01:00,
2013-03-06 08:02:00,36.7,28.5,29.23,SSW,202,0.0,0.0,72,0.00,,---,0.00,VWS V13.01,2013-03-06 13:02:00,
2013-03-06 08:03:00,36.7,28.5,29.23,SSW,202,0.0,0.0,72,0.00,,---,0.00,VWS V13.01,2013-03-06 13:03:00,
2013-03-06 08:06:00,36.7,28.5,29.23,SSW,202,0.0,0.0,72,0.00,,---,0.00,VWS V13.01,2013-03-06 13:06:00,
2013-03-06 08:07:00,36.7,28.5,29.23,SSW,202,0.0,0.0,72,0.00,,---,0.00,VWS V13.01,2013-03-06 13:07:00,
2013-03-06 08:08:00,36.7,28.5,29.23,SSE,158,0.0,0.0,72,0.00,,---,0.00,VWS V13.01,2013-03-06 13:08:00,
2013-03-06 08:11:00,36.7,28.5,29.23,SSE,158,0.0,0.0,72,0.00,,---,0.00,VWS V13.01,2013-03-06 13:11:00,
2013-03-06 08:12:00,36.7,28.5,29.23,SSE,158,0.0,0.0,72,0.00,,---,0.00,VWS V13.01,2013-03-06 13:12:00,
2013-03-06 08:13:00,36.7,28.5,29.23,SSE,158,0.0,0.0,72,0.00,,---,0.00,VWS V13.01,2013-03-06 13:13:00,
2013-03-06 08:17:00,36.7,28.5,29.23,SSW,202,6.3,6.3,72,0.00,,---,0.00,VWS V13.01,2013-03-06 13:17:00,
2013-03-06 08:18:00,36.7,28.5,29.23,SSW,202,6.3,6.3,72,0.00,,---,0.00,VWS V13.01,2013-03-06 13:18:00,
2013-03-06 08:22:00,36.7,28.5,29.23,SSE,158,0.0,0.0,72,0.00,,---,0.00,VWS V13.01,2013-03-06 13:22:00,
2013-03-06 08:23:00,36.7,28.5,29.23,SSE,158,0.0,0.0,72,0.00,,---,0.00,VWS V13.01,2013-03-06 13:23:00,
2013-03-06 08:27:00,36.7,28.5,29.23,SSE,158,0.0,0.0,72,0.00,,---,0.00,VWS V13.01,2013-03-06 13:27:00,
2013-03-06 08:28:00,36.7,28.5,29.23,SSE,158,0.0,0.0,72,0.00,,---,0.00,VWS V13.01,2013-03-06 13:28:00,
2013-03-06 08:32:00,36.7,28.5,29.23,SW,225,0.0,0.0,72,0.00,,---,0.00,VWS V13.01,2013-03-06 13:32:00,
2013-03-06 08:33:00,36.7,28.5,29.23,SW,225,0.0,0.0,72,0.00,,---,0.00,VWS V13.01,2013-03-06 13:33:00,
2013-03-06 08:37:00,36.7,28.5,29.23,NNE,22,0.0,0.0,72,0.00,,---,0.00,VWS V13.01,2013-03-06 13:37:00,
2013-03-06 08:38:00,36.7,28.5,29.23,SSW,202,0.9,0.9,72,0.00,,---,0.00,VWS V13.01,2013-03-06 13:38:00,
2013-03-06 08:42:00,36.7,28.5,29.23,ENE,68,3.8,3.8,72,0.00,,---,0.00,VWS V13.01,2013-03-06 13:42:00,
2013-03-06 08:43:00,36.7,28.5,29.23,ENE,68,3.8,3.8,72,0.00,,---,0.00,VWS V13.01,2013-03-06 13:43:00,
2013-03-06 08:47:00,36.7,28.5,29.23,South,180,2.9,2.9,72,0.00,,---,0.00,VWS V13.01,2013-03-06 13:47:00,
2013-03-06 08:48:00,36.7,28.5,29.23,South,180,2.9,2.9,72,0.00,,---,0.00,VWS V13.01,2013-03-06 13:48:00,
2013-03-06 08:49:00,36.7,28.5,29.23,South,180,2.9,2.9,72,0.00,,---,0.00,VWS V13.01,2013-03-06 13:49:00,
2013-03-06 08:52:00,36.7,28.5,29.23,ENE,68,2.5,2.5,72,0.00,,---,0.00,VWS V13.01,2013-03-06 13:52:00,
2013-03-06 08:53:00,36.7,28.5,29.23,ENE,68,2.5,2.5,72,0.00,,---,0.00,VWS V13.01,2013-03-06 13:53:00,
2013-03-06 08:54:00,36.7,28.5,29.23,ENE,68,2.5,2.5,72,0.00,,---,0.00,VWS V13.01,2013-03-06 13:54:00,
2013-03-06 08:58:00,36.7,28.5,29.23,SSE,158,0.0,0.0,72,0.00,,---,0.00,VWS V13.01,2013-03-06 13:58:00,
2013-03-06 08:59:00,37.2,29.4,29.23,SSE,158,0.0,0.0,73,0.00,,---,0.00,VWS V13.01,2013-03-06 13:59:00,
2013-03-06 09:03:00,37.2,29.4,29.23,SSE,158,0.0,0.0,73,0.00,,---,0.00,VWS V13.01,2013-03-06 14:03:00,
2013-03-06 09:04:00,37.2,29.4,29.23,SSE,158,0.0,0.0,73,0.00,,---,0.00,VWS V13.01,2013-03-06 14:04:00,
2013-03-06 09:08:00,37.4,29.5,29.23,SSE,158,0.0,0.0,73,0.00,,---,0.00,VWS V13.01,2013-03-06 14:08:00,
2013-03-06 09:09:00,37.4,29.5,29.23,SSE,158,0.0,0.0,73,0.00,,---,0.00,VWS V13.01,2013-03-06 14:09:00,
2013-03-06 09:10:00,37.4,29.5,29.23,SSE,158,0.0,0.0,73,0.00,,---,0.00,VWS V13.01,2013-03-06 14:10:00,
2013-03-06 09:13:00,37.4,29.2,29.23,ENE,68,0.0,0.0,72,0.00,,---,0.00,VWS V13.01,2013-03-06 14:13:00,
2013-03-06 09:14:00,37.4,29.2,29.23,NNW,338,1.1,1.1,72,0.00,,---,0.00,VWS V13.01,2013-03-06 14:14:00,
2013-03-06 09:15:00,37.4,29.2,29.23,NNW,338,1.1,1.1,72,0.00,,---,0.00,VWS V13.01,2013-03-06 14:15:00,
2013-03-06 09:18:00,37.4,29.2,29.23,North,0,3.1,3.1,72,0.00,,---,0.00,VWS V13.01,2013-03-06 14:18:00,
2013-03-06 09:19:00,37.4,29.2,29.23,North,0,3.1,3.1,72,0.00,,---,0.00,VWS V13.01,2013-03-06 14:19:00,
2013-03-06 09:20:00,37.4,29.2,29.23,North,0,3.1,3.1,72,0.00,,---,0.00,VWS V13.01,2013-03-06 14:20:00,
2013-03-06 09:23:00,37.4,29.2,29.23,ESE,112,0.0,3.1,72,0.00,,---,0.00,VWS V13.01,2013-03-06 14:23:00,
2013-03-06 09:24:00,37.4,29.2,29.23,ESE,112,0.0,0.0,72,0.00,,---,0.00,VWS V13.01,2013-03-06 14:24:00,
2013-03-06 09:25:00,37.4,29.2,29.23,ESE,112,0.0,0.0,72,0.00,,---,0.00,VWS V13.01,2013-03-06 14:25:00,
2013-03-06 09:28:00,37.4,29.2,29.23,ESE,112,0.0,0.0,72,0.00,,---,0.00,VWS V13.01,2013-03-06 14:28:00,
2013-03-06 09:29:00,37.4,29.2,29.23,ESE,112,0.0,0.0,72,0.00,,---,0.00,VWS V13.01,2013-03-06 14:29:00,
2013-03-06 09:30:00,37.4,29.2,29.23,ESE,112,0.0,0.0,72,0.00,,---,0.00,VWS V13.01,2013-03-06 14:30:00,
2013-03-06 09:33:00,37.4,29.2,29.23,SSE,158,1.6,2.9,72,0.00,,---,0.00,VWS V13.01,2013-03-06 14:33:00,
2013-03-06 09:34:00,37.4,29.2,29.23,SSE,158,1.6,1.6,72,0.00,,---,0.00,VWS V13.01,2013-03-06 14:34:00,
2013-03-06 09:35:00,37.4,29.2,29.23,SSE,158,1.6,1.6,72,0.00,,---,0.00,VWS V13.01,2013-03-06 14:35:00,
2013-03-06 09:36:00,37.4,29.2,29.23,SSE,158,1.6,1.6,72,0.00,,---,0.00,VWS V13.01,2013-03-06 14:36:00,
2013-03-06 09:38:00,37.4,29.2,29.23,SSE,158,1.6,1.6,72,0.00,,---,0.00,VWS V13.01,2013-03-06 14:38:00,
2013-03-06 09:40:00,37.4,29.2,29.23,SSE,158,1.6,1.6,72,0.00,,---,0.00,VWS V13.01,2013-03-06 14:40:00,
2013-03-06 09:41:00,37.4,29.2,29.23,SSE,158,1.6,1.6,72,0.00,,---,0.00,VWS V13.01,2013-03-06 14:41:00,
2013-03-06 09:44:00,37.4,29.2,29.23,ESE,112,0.9,0.9,72,0.00,,---,0.00,VWS V13.01,2013-03-06 14:44:00,
2013-03-06 09:45:00,37.4,29.2,29.23,ESE,112,0.9,0.9,72,0.00,,---,0.00,VWS V13.01,2013-03-06 14:45:00,
2013-03-06 09:46:00,37.4,29.2,29.23,ESE,112,0.9,0.9,72,0.00,,---,0.00,VWS V13.01,2013-03-06 14:46:00,
2013-03-06 09:49:00,37.4,29.2,29.23,ESE,112,0.9,0.9,72,0.00,,---,0.00,VWS V13.01,2013-03-06 14:49:00,
2013-03-06 09:50:00,37.4,29.2,29.23,SSW,202,2.0,2.0,72,0.00,,---,0.00,VWS V13.01,2013-03-06 14:50:00,
2013-03-06 09:51:00,37.4,29.2,29.23,NNW,338,2.5,2.5,72,0.00,,---,0.00,VWS V13.01,2013-03-06 14:51:00,
2013-03-06 09:52:00,37.4,29.2,29.23,NNW,338,2.5,2.5,72,0.00,,---,0.00,VWS V13.01,2013-03-06 14:52:00,
2013-03-06 09:54:00,37.4,29.2,29.23,NW,315,2.7,2.7,72,0.00,,---,0.00,VWS V13.01,2013-03-06 14:54:00,
2013-03-06 09:56:00,37.4,29.2,29.23,WNW,292,2.7,2.7,72,0.00,,---,0.00,VWS V13.01,2013-03-06 14:56:00,
2013-03-06 09:57:00,37.4,29.2,29.23,WNW,292,2.7,2.7,72,0.00,,---,0.00,VWS V13.01,2013-03-06 14:57:00,
2013-03-06 09:59:00,37.4,29.2,29.23,SSE,158,0.0,0.0,72,0.00,,---,0.00,VWS V13.01,2013-03-06 14:59:00,
2013-03-06 10:01:00,38.1,29.9,29.23,SSW,202,2.0,2.0,72,0.00,,---,0.00,VWS V13.01,2013-03-06 15:01:00,
2013-03-06 10:02:00,38.1,29.9,29.23,SSW,202,2.0,2.0,72,0.00,,---,0.00,VWS V13.01,2013-03-06 15:02:00,
2013-03-06 10:04:00,38.1,29.9,29.23,SW,225,2.7,2.7,72,0.00,,---,0.00,VWS V13.01,2013-03-06 15:04:00,
2013-03-06 10:06:00,38.1,29.9,29.23,SW,225,2.5,2.5,72,0.00,,---,0.00,VWS V13.01,2013-03-06 15:06:00,
2013-03-06 10:07:00,38.1,29.9,29.23,SW,225,2.5,2.5,72,0.00,,---,0.00,VWS V13.01,2013-03-06 15:07:00,
2013-03-06 10:09:00,38.1,29.9,29.23,SW,225,2.5,2.5,72,0.00,,---,0.00,VWS V13.01,2013-03-06 15:09:00,
2013-03-06 10:11:00,38.1,29.9,29.23,SW,225,2.5,2.5,72,0.00,,---,0.00,VWS V13.01,2013-03-06 15:11:00,
2013-03-06 10:12:00,38.1,29.9,29.23,SW,225,2.5,2.5,72,0.00,,---,0.00,VWS V13.01,2013-03-06 15:12:00,
2013-03-06 10:14:00,38.1,29.9,29.23,SW,225,2.5,2.5,72,0.00,,---,0.00,VWS V13.01,2013-03-06 15:14:00,
2013-03-06 10:16:00,38.1,29.9,29.23,SW,225,2.5,2.5,72,0.00,,---,0.00,VWS V13.01,2013-03-06 15:16:00,
2013-03-06 10:17:00,38.1,29.9,29.23,SW,225,2.5,2.5,72,0.00,,---,0.00,VWS V13.01,2013-03-06 15:17:00,
2013-03-06 10:19:00,38.8,30.9,29.23,West,270,0.9,0.9,73,0.00,,---,0.00,VWS V13.01,2013-03-06 15:19:00,
2013-03-06 10:21:00,38.8,30.6,29.23,West,270,0.9,0.9,72,0.00,,---,0.00,VWS V13.01,2013-03-06 15:21:00,
2013-03-06 10:22:00,38.8,30.6,29.23,SSE,158,1.1,1.1,72,0.00,,---,0.00,VWS V13.01,2013-03-06 15:22:00,
2013-03-06 10:24:00,38.8,30.6,29.23,SW,225,1.1,1.1,72,0.00,,---,0.00,VWS V13.01,2013-03-06 15:24:00,
2013-03-06 10:27:00,39.2,31.0,29.23,SW,225,1.1,1.1,72,0.00,,---,0.00,VWS V13.01,2013-03-06 15:27:00,
2013-03-06 10:28:00,39.2,31.0,29.23,South,180,0.0,2.0,72,0.00,,---,0.00,VWS V13.01,2013-03-06 15:28:00,
2013-03-06 10:30:00,39.2,31.0,29.23,South,180,0.0,0.0,72,0.00,,---,0.00,VWS V13.01,2013-03-06 15:30:00,
2013-03-06 10:32:00,39.2,31.0,29.23,SSE,158,2.5,2.5,72,0.00,,---,0.00,VWS V13.01,2013-03-06 15:32:00,
2013-03-06 10:33:00,39.2,31.0,29.23,NE,45,1.1,1.1,72,0.00,,---,0.00,VWS V13.01,2013-03-06 15:33:00,
2013-03-06 10:35:00,39.4,31.5,29.23,NE,45,1.1,1.1,73,0.00,,---,0.00,VWS V13.01,2013-03-06 15:35:00,
2013-03-06 10:37:00,39.4,31.5,29.23,NE,45,1.1,1.1,73,0.00,,---,0.00,VWS V13.01,2013-03-06 15:37:00,
2013-03-06 10:38:00,39.4,31.5,29.23,NE,45,1.1,1.1,73,0.00,,---,0.00,VWS V13.01,2013-03-06 15:38:00,
2013-03-06 10:40:00,39.4,31.5,29.23,SSW,202,2.0,2.0,73,0.00,,---,0.00,VWS V13.01,2013-03-06 15:40:00,
2013-03-06 10:42:00,39.4,31.5,29.23,SSW,202,2.0,2.0,73,0.00,,---,0.00,VWS V13.01,2013-03-06 15:42:00,
2013-03-06 10:43:00,39.4,31.5,29.23,SSW,202,2.0,2.0,73,0.00,,---,0.00,VWS V13.01,2013-03-06 15:43:00,
2013-03-06 10:44:00,39.4,31.5,29.23,SSW,202,2.0,2.0,73,0.00,,---,0.00,VWS V13.01,2013-03-06 15:44:00,
2013-03-06 10:46:00,39.4,31.5,29.23,SSW,202,2.9,2.9,73,0.00,,---,0.00,VWS V13.01,2013-03-06 15:46:00,
2013-03-06 10:48:00,40.1,32.2,29.23,SSW,202,2.9,2.9,73,0.00,,---,0.00,VWS V13.01,2013-03-06 15:48:00,
2013-03-06 10:49:00,40.1,32.2,29.23,South,180,0.0,2.9,73,0.00,,---,0.00,VWS V13.01,2013-03-06 15:49:00,
2013-03-06 10:51:00,40.1,32.2,29.23,South,180,0.0,0.0,73,0.00,,---,0.00,VWS V13.01,2013-03-06 15:51:00,
2013-03-06 10:53:00,40.3,32.0,29.20,East,90,2.7,2.7,72,0.00,,---,0.00,VWS V13.01,2013-03-06 15:53:00,
2013-03-06 10:54:00,40.3,32.0,29.20,East,90,2.7,2.7,72,0.00,,---,0.00,VWS V13.01,2013-03-06 15:54:00,
2013-03-06 10:56:00,40.3,32.0,29.20,East,90,2.7,2.7,72,0.00,,---,0.00,VWS V13.01,2013-03-06 15:56:00,
2013-03-06 10:58:00,40.3,32.0,29.20,SSW,202,0.9,2.7,72,0.00,,---,0.00,VWS V13.01,2013-03-06 15:58:00,
2013-03-06 10:59:00,40.3,32.0,29.20,SSW,202,0.9,2.7,72,0.00,,---,0.00,VWS V13.01,2013-03-06 15:59:00,
2013-03-06 11:01:00,40.3,32.0,29.20,SSW,202,0.9,0.9,72,0.00,,---,0.00,VWS V13.01,2013-03-06 16:01:00,
2013-03-06 11:03:00,40.3,32.0,29.20,SSW,202,0.9,0.9,72,0.00,,---,0.00,VWS V13.01,2013-03-06 16:03:00,
2013-03-06 11:04:00,40.3,32.0,29.20,ENE,68,1.6,1.6,72,0.00,,---,0.00,VWS V13.01,2013-03-06 16:04:00,
2013-03-06 11:06:00,40.3,32.0,29.20,ENE,68,1.6,1.6,72,0.00,,---,0.00,VWS V13.01,2013-03-06 16:06:00,
2013-03-06 11:08:00,41.4,33.0,29.20,SSE,158,7.8,7.8,72,0.00,,---,0.00,VWS V13.01,2013-03-06 16:08:00,
2013-03-06 11:09:00,41.4,33.0,29.20,SSE,158,7.8,7.8,72,0.00,,---,0.00,VWS V13.01,2013-03-06 16:09:00,
2013-03-06 11:11:00,41.2,32.5,29.20,SSW,202,2.5,2.5,71,0.00,,---,0.00,VWS V13.01,2013-03-06 16:11:00,
2013-03-06 11:13:00,40.8,32.2,29.20,SSW,202,2.5,2.5,71,0.00,,---,0.00,VWS V13.01,2013-03-06 16:13:00,
2013-03-06 11:14:00,40.8,32.2,29.20,SSW,202,2.5,2.5,71,0.00,,---,0.00,VWS V13.01,2013-03-06 16:14:00,
2013-03-06 11:16:00,41.0,32.3,29.20,SSW,202,2.5,2.5,71,0.00,,---,0.00,VWS V13.01,2013-03-06 16:16:00,
2013-03-06 11:19:00,41.0,32.3,29.20,SSW,202,2.5,2.5,71,0.00,,---,0.00,VWS V13.01,2013-03-06 16:19:00,
2013-03-06 11:20:00,41.0,32.3,29.20,SSW,202,2.5,2.5,71,0.00,,---,0.00,VWS V13.01,2013-03-06 16:20:00,
2013-03-06 11:22:00,41.0,32.3,29.23,SW,225,2.2,2.2,71,0.00,,---,0.00,VWS V13.01,2013-03-06 16:22:00,
2013-03-06 11:24:00,41.0,32.3,29.23,WSW,248,1.3,1.3,71,0.00,,---,0.00,VWS V13.01,2013-03-06 16:24:00,
2013-03-06 11:25:00,41.0,32.3,29.23,WSW,248,1.3,1.3,71,0.00,,---,0.00,VWS V13.01,2013-03-06 16:25:00,
2013-03-06 11:27:00,41.0,32.3,29.23,WSW,248,1.3,1.3,71,0.00,,---,0.00,VWS V13.01,2013-03-06 16:27:00,
2013-03-06 11:29:00,41.0,32.3,29.23,WSW,248,1.3,1.3,71,0.00,,---,0.00,VWS V13.01,2013-03-06 16:29:00,
2013-03-06 11:30:00,41.0,32.3,29.23,WSW,248,1.3,1.3,71,0.00,,---,0.00,VWS V13.01,2013-03-06 16:30:00,
2013-03-06 11:31:00,41.0,32.3,29.23,WSW,248,1.3,1.3,71,0.00,,---,0.00,VWS V13.01,2013-03-06 16:31:00,
2013-03-06 11:32:00,41.0,32.3,29.23,SW,225,0.0,1.3,71,0.00,,---,0.00,VWS V13.01,2013-03-06 16:32:00,
2013-03-06 11:35:00,41.0,32.3,29.23,WNW,292,3.8,3.8,71,0.00,,---,0.00,VWS V13.01,2013-03-06 16:35:00,
2013-03-06 11:36:00,41.0,32.3,29.23,WNW,292,3.8,3.8,71,0.00,,---,0.00,VWS V13.01,2013-03-06 16:36:00,
2013-03-06 11:37:00,41.0,32.3,29.23,WNW,292,3.8,3.8,71,0.00,,---,0.00,VWS V13.01,2013-03-06 16:37:00,
2013-03-06 11:40:00,41.0,32.3,29.23,SSW,202,2.5,2.5,71,0.00,,---,0.00,VWS V13.01,2013-03-06 16:40:00,
2013-03-06 11:41:00,41.0,32.3,29.23,SSW,202,2.5,2.5,71,0.00,,---,0.00,VWS V13.01,2013-03-06 16:41:00,
2013-03-06 11:42:00,41.0,32.3,29.23,ESE,112,1.3,2.9,71,0.00,,---,0.00,VWS V13.01,2013-03-06 16:42:00,
2013-03-06 11:45:00,41.0,32.3,29.23,ESE,112,1.3,1.3,71,0.00,,---,0.00,VWS V13.01,2013-03-06 16:45:00,
2013-03-06 11:46:00,41.0,32.3,29.23,ESE,112,1.3,1.3,71,0.00,,---,0.00,VWS V13.01,2013-03-06 16:46:00,
2013-03-06 11:47:00,41.0,32.3,29.23,ESE,112,1.3,1.3,71,0.00,,---,0.00,VWS V13.01,2013-03-06 16:47:00,
2013-03-06 11:50:00,41.0,32.3,29.23,SSE,158,4.9,4.9,71,0.00,,---,0.00,VWS V13.01,2013-03-06 16:50:00,
2013-03-06 11:51:00,41.0,32.3,29.23,North,0,5.6,5.6,71,0.00,,---,0.00,VWS V13.01,2013-03-06 16:51:00,
2013-03-06 11:53:00,41.0,32.3,29.20,North,0,5.6,5.6,71,0.00,,---,0.00,VWS V13.01,2013-03-06 16:53:00,
2013-03-06 11:56:00,41.0,32.3,29.20,SSW,202,0.0,0.0,71,0.00,,---,0.00,VWS V13.01,2013-03-06 16:56:00,
2013-03-06 11:58:00,41.0,32.3,29.20,NNW,338,3.1,4.3,71,0.00,,---,0.00,VWS V13.01,2013-03-06 16:58:00,
2013-03-06 12:01:00,41.0,32.3,29.20,NNW,338,3.1,3.1,71,0.00,,---,0.00,VWS V13.01,2013-03-06 17:01:00,
2013-03-06 12:03:00,41.0,32.3,29.20,ENE,68,3.8,3.8,71,0.00,,---,0.00,VWS V13.01,2013-03-06 17:03:00,
2013-03-06 12:06:00,41.0,32.3,29.20,ENE,68,3.8,3.8,71,0.00,,---,0.00,VWS V13.01,2013-03-06 17:06:00,
2013-03-06 12:07:00,41.0,32.3,29.20,ENE,68,3.8,3.8,71,0.00,,---,0.00,VWS V13.01,2013-03-06 17:07:00,
2013-03-06 12:08:00,41.0,32.3,29.20,SSW,202,2.7,3.8,71,0.00,,---,0.00,VWS V13.01,2013-03-06 17:08:00,
2013-03-06 12:12:00,41.0,32.3,29.20,WNW,292,3.6,3.6,71,0.00,,---,0.00,VWS V13.01,2013-03-06 17:12:00,
2013-03-06 12:13:00,41.0,32.3,29.20,NE,45,2.7,2.7,71,0.00,,---,0.00,VWS V13.01,2013-03-06 17:13:00,
2013-03-06 12:17:00,41.0,32.3,29.20,SSW,202,3.1,3.1,71,0.00,,---,0.00,VWS V13.01,2013-03-06 17:17:00,
2013-03-06 12:18:00,41.0,32.3,29.20,SSW,202,2.9,2.9,71,0.00,,---,0.00,VWS V13.01,2013-03-06 17:18:00,
2013-03-06 12:22:00,41.0,32.3,29.20,SSE,158,4.0,4.0,71,0.00,,---,0.00,VWS V13.01,2013-03-06 17:22:00,
2013-03-06 12:23:00,41.0,32.3,29.20,SSE,158,4.0,4.0,71,0.00,,---,0.00,VWS V13.01,2013-03-06 17:23:00,
2013-03-06 12:27:00,41.0,32.3,29.20,SSE,158,4.0,4.0,71,0.00,,---,0.00,VWS V13.01,2013-03-06 17:27:00,
2013-03-06 12:28:00,41.0,32.3,29.20,SSE,158,4.0,4.0,71,0.00,,---,0.00,VWS V13.01,2013-03-06 17:28:00,
2013-03-06 12:32:00,41.9,31.8,29.20,SSE,158,4.0,4.0,67,0.00,,---,0.00,VWS V13.01,2013-03-06 17:32:00,
2013-03-06 12:33:00,41.9,31.8,29.20,SSE,158,4.0,4.0,67,0.00,,---,0.00,VWS V13.01,2013-03-06 17:33:00,
2013-03-06 12:37:00,41.9,31.8,29.20,SSE,158,4.0,4.0,67,0.00,,---,0.00,VWS V13.01,2013-03-06 17:37:00,
2013-03-06 12:38:00,41.9,31.8,29.20,SSE,158,4.0,4.0,67,0.00,,---,0.00,VWS V13.01,2013-03-06 17:38:00,
2013-03-06 12:42:00,41.9,31.8,29.20,North,0,2.5,2.5,67,0.00,,---,0.00,VWS V13.01,2013-03-06 17:42:00,
2013-03-06 12:43:00,41.9,31.8,29.20,North,0,2.5,2.5,67,0.00,,---,0.00,VWS V13.01,2013-03-06 17:43:00,
2013-03-06 12:47:00,41.9,31.8,29.20,North,0,2.5,2.5,67,0.00,,---,0.00,VWS V13.01,2013-03-06 17:47:00,
2013-03-06 12:48:00,41.9,31.8,29.20,North,0,2.5,2.5,67,0.00,,---,0.00,VWS V13.01,2013-03-06 17:48:00,
2013-03-06 12:52:00,41.9,31.8,29.20,North,0,2.5,2.5,67,0.00,,---,0.00,VWS V13.01,2013-03-06 17:52:00,
2013-03-06 12:53:00,41.9,31.8,29.20,North,0,2.5,2.5,67,0.00,,---,0.00,VWS V13.01,2013-03-06 17:53:00,
2013-03-06 12:57:00,39.9,30.2,29.20,NW,315,4.9,4.9,68,0.00,,---,0.00,VWS V13.01,2013-03-06 17:57:00,
2013-03-06 12:58:00,39.9,30.2,29.20,NW,315,4.9,4.9,68,0.00,,---,0.00,VWS V13.01,2013-03-06 17:58:00,
2013-03-06 13:03:00,39.9,30.2,29.20,NE,45,3.4,3.4,68,0.00,,---,0.00,VWS V13.01,2013-03-06 18:03:00,
2013-03-06 13:08:00,39.9,30.2,29.20,NE,45,3.4,3.4,68,0.00,,---,0.00,VWS V13.01,2013-03-06 18:08:00,
2013-03-06 13:09:00,39.9,30.2,29.20,South,180,0.9,0.9,68,0.00,,---,0.00,VWS V13.01,2013-03-06 18:09:00,
2013-03-06 13:13:00,39.9,30.2,29.20,North,0,4.5,4.5,68,0.00,,---,0.00,VWS V13.01,2013-03-06 18:13:00,
2013-03-06 13:14:00,39.9,30.2,29.20,SE,135,4.7,4.7,68,0.00,,---,0.00,VWS V13.01,2013-03-06 18:14:00,
2013-03-06 13:18:00,41.0,30.1,29.20,ESE,112,4.0,4.0,65,0.00,,---,0.00,VWS V13.01,2013-03-06 18:18:00,
2013-03-06 13:19:00,41.0,30.1,29.20,ESE,112,4.0,4.0,65,0.00,,---,0.00,VWS V13.01,2013-03-06 18:19:00,
2013-03-06 13:23:00,41.0,30.1,29.20,NNW,338,3.8,5.6,65,0.00,,---,0.00,VWS V13.01,2013-03-06 18:23:00,
2013-03-06 13:24:00,41.0,30.1,29.20,NNW,338,3.8,3.8,65,0.00,,---,0.00,VWS V13.01,2013-03-06 18:24:00,
2013-03-06 13:28:00,41.0,30.1,29.20,East,90,5.4,5.4,65,0.00,,---,0.00,VWS V13.01,2013-03-06 18:28:00,
2013-03-06 13:29:00,41.0,30.1,29.20,East,90,5.4,5.4,65,0.00,,---,0.00,VWS V13.01,2013-03-06 18:29:00,
2013-03-06 13:34:00,41.0,30.1,29.20,ENE,68,2.5,2.7,65,0.00,,---,0.00,VWS V13.01,2013-03-06 18:34:00,
2013-03-06 13:39:00,41.0,30.1,29.20,SSE,158,2.0,2.0,65,0.00,,---,0.00,VWS V13.01,2013-03-06 18:39:00,
2013-03-06 13:44:00,41.0,30.1,29.20,North,0,2.7,2.7,65,0.00,,---,0.00,VWS V13.01,2013-03-06 18:44:00,
2013-03-06 13:49:00,39.2,29.2,29.20,WNW,292,7.8,7.8,67,0.00,,---,0.00,VWS V13.01,2013-03-06 18:49:00,
2013-03-06 13:50:00,39.2,29.2,29.20,WNW,292,7.8,7.8,67,0.00,,---,0.00,VWS V13.01,2013-03-06 18:50:00,
2013-03-06 13:54:00,39.2,29.2,29.20,NW,315,3.4,3.4,67,0.00,,---,0.00,VWS V13.01,2013-03-06 18:54:00,
2013-03-06 13:55:00,39.2,29.2,29.20,NW,315,3.4,3.4,67,0.00,,---,0.00,VWS V13.01,2013-03-06 18:55:00,
2013-03-06 13:59:00,39.2,29.2,29.20,NW,315,3.4,3.4,67,0.00,,---,0.00,VWS V13.01,2013-03-06 18:59:00,
2013-03-06 14:00:00,39.2,29.2,29.20,NW,315,3.4,3.4,67,0.00,,---,0.00,VWS V13.01,2013-03-06 19:00:00,
2013-03-06 14:04:00,38.1,29.2,29.20,SSW,202,3.1,3.1,70,0.00,,---,0.00,VWS V13.01,2013-03-06 19:04:00,
2013-03-06 14:05:00,38.1,29.2,29.20,WNW,292,2.5,3.1,70,0.00,,---,0.00,VWS V13.01,2013-03-06 19:05:00,
2013-03-06 14:10:00,38.1,29.2,29.20,SSE,158,3.1,3.1,70,0.00,,---,0.00,VWS V13.01,2013-03-06 19:10:00,
2013-03-06 14:15:00,38.1,29.2,29.20,NNW,338,2.9,2.9,70,0.00,,---,0.00,VWS V13.01,2013-03-06 19:15:00,
2013-03-06 14:20:00,38.1,28.1,29.20,WSW,248,7.2,7.2,67,0.00,,---,0.00,VWS V13.01,2013-03-06 19:20:00,
2013-03-06 14:21:00,38.1,28.1,29.20,WSW,248,7.2,7.2,67,0.00,,---,0.00,VWS V13.01,2013-03-06 19:21:00,
2013-03-06 14:25:00,38.1,28.1,29.20,East,90,3.4,3.4,67,0.00,,---,0.00,VWS V13.01,2013-03-06 19:25:00,
2013-03-06 14:26:00,38.1,28.1,29.20,East,90,3.4,3.4,67,0.00,,---,0.00,VWS V13.01,2013-03-06 19:26:00,
2013-03-06 14:30:00,38.1,28.1,29.20,ESE,112,3.4,3.4,67,0.00,,---,0.00,VWS V13.01,2013-03-06 19:30:00,
2013-03-06 14:31:00,38.1,28.1,29.20,SE,135,1.6,1.6,67,0.00,,---,0.00,VWS V13.01,2013-03-06 19:31:00,
2013-03-06 14:35:00,38.1,28.1,29.20,NNW,338,2.9,2.9,67,0.00,,---,0.00,VWS V13.01,2013-03-06 19:35:00,
2013-03-06 14:36:00,38.1,28.1,29.20,NNW,338,2.9,2.9,67,0.00,,---,0.00,VWS V13.01,2013-03-06 19:36:00,
2013-03-06 14:40:00,38.3,26.8,29.20,NW,315,5.4,5.4,63,0.00,,---,0.00,VWS V13.01,2013-03-06 19:40:00,
2013-03-06 14:41:00,38.3,26.8,29.20,NW,315,5.4,5.4,63,0.00,,---,0.00,VWS V13.01,2013-03-06 19:41:00,
2013-03-06 14:45:00,38.3,26.8,29.20,North,0,2.7,2.7,63,0.00,,---,0.00,VWS V13.01,2013-03-06 19:45:00,
2013-03-06 14:46:00,38.3,26.8,29.20,North,0,2.7,2.7,63,0.00,,---,0.00,VWS V13.01,2013-03-06 19:46:00,
2013-03-06 14:47:00,38.3,26.8,29.20,North,0,2.7,2.7,63,0.00,,---,0.00,VWS V13.01,2013-03-06 19:47:00,
2013-03-06 14:50:00,38.3,26.8,29.20,NE,45,3.1,3.1,63,0.00,,---,0.00,VWS V13.01,2013-03-06 19:50:00,
2013-03-06 14:51:00,38.3,26.8,29.20,ENE,68,4.7,4.7,63,0.00,,---,0.00,VWS V13.01,2013-03-06 19:51:00,
2013-03-06 14:52:00,38.3,26.8,29.20,NW,315,3.6,3.6,63,0.00,,---,0.00,VWS V13.01,2013-03-06 19:52:00,
2013-03-06 14:55:00,38.3,26.8,29.20,NNW,338,5.8,5.8,63,0.00,,---,0.00,VWS V13.01,2013-03-06 19:55:00,
2013-03-06 14:56:00,38.3,26.8,29.20,NNW,338,5.8,5.8,63,0.00,,---,0.00,VWS V13.01,2013-03-06 19:56:00,
2013-03-06 14:57:00,38.3,26.8,29.20,NNW,338,5.8,5.8,63,0.00,,---,0.00,VWS V13.01,2013-03-06 19:57:00,
2013-03-06 15:00:00,38.3,26.8,29.20,NNE,22,3.1,4.3,63,0.00,,---,0.00,VWS V13.01,2013-03-06 20:00:00,
2013-03-06 15:01:00,38.3,26.8,29.20,ESE,112,0.0,2.7,63,0.00,,---,0.00,VWS V13.01,2013-03-06 20:01:00,
2013-03-06 15:02:00,38.3,26.8,29.20,ESE,112,0.0,0.0,63,0.00,,---,0.00,VWS V13.01,2013-03-06 20:02:00,
2013-03-06 15:05:00,38.7,26.4,29.20,NNW,338,2.7,2.7,61,0.00,,---,0.00,VWS V13.01,2013-03-06 20:05:00,
2013-03-06 15:06:00,38.7,26.4,29.20,West,270,2.5,2.7,61,0.00,,---,0.00,VWS V13.01,2013-03-06 20:06:00,
2013-03-06 15:07:00,38.7,26.4,29.20,West,270,2.5,2.5,61,0.00,,---,0.00,VWS V13.01,2013-03-06 20:07:00,
2013-03-06 15:08:00,38.7,26.4,29.20,West,270,2.5,2.5,61,0.00,,---,0.00,VWS V13.01,2013-03-06 20:08:00,
2013-03-06 15:11:00,38.7,26.4,29.20,NW,315,2.2,2.2,61,0.00,,---,0.00,VWS V13.01,2013-03-06 20:11:00,
2013-03-06 15:12:00,38.7,26.4,29.20,NE,45,2.5,2.5,61,0.00,,---,0.00,VWS V13.01,2013-03-06 20:12:00,
2013-03-06 15:13:00,38.7,26.4,29.20,East,90,1.3,1.3,61,0.00,,---,0.00,VWS V13.01,2013-03-06 20:13:00,
2013-03-06 15:16:00,38.7,26.4,29.20,NW,315,3.1,3.1,61,0.00,,---,0.00,VWS V13.01,2013-03-06 20:16:00,
2013-03-06 15:17:00,38.8,26.6,29.20,NW,315,3.6,3.6,61,0.00,,---,0.00,VWS V13.01,2013-03-06 20:17:00,
2013-03-06 15:18:00,38.8,26.6,29.20,North,0,3.6,3.6,61,0.00,,---,0.00,VWS V13.01,2013-03-06 20:18:00,
2013-03-06 15:21:00,38.8,26.6,29.20,North,0,3.6,3.6,61,0.00,,---,0.00,VWS V13.01,2013-03-06 20:21:00,
2013-03-06 15:22:00,38.8,26.6,29.20,North,0,3.6,3.6,61,0.00,,---,0.00,VWS V13.01,2013-03-06 20:22:00,
2013-03-06 15:23:00,38.8,26.6,29.20,NE,45,4.7,4.7,61,0.00,,---,0.00,VWS V13.01,2013-03-06 20:23:00,
2013-03-06 15:26:00,38.8,26.6,29.20,NNW,338,6.0,6.0,61,0.00,,---,0.00,VWS V13.01,2013-03-06 20:26:00,
2013-03-06 15:27:00,38.8,26.6,29.20,West,270,1.1,6.0,61,0.00,,---,0.00,VWS V13.01,2013-03-06 20:27:00,
2013-03-06 15:28:00,38.8,26.6,29.20,West,270,1.1,1.1,61,0.00,,---,0.00,VWS V13.01,2013-03-06 20:28:00,
2013-03-06 15:31:00,38.8,26.6,29.20,West,270,4.3,4.3,61,0.00,,---,0.00,VWS V13.01,2013-03-06 20:31:00,
2013-03-06 15:32:00,38.8,26.6,29.20,West,270,4.3,4.3,61,0.00,,---,0.00,VWS V13.01,2013-03-06 20:32:00,
2013-03-06 15:33:00,38.8,26.6,29.20,West,270,4.3,4.3,61,0.00,,---,0.00,VWS V13.01,2013-03-06 20:33:00,
2013-03-06 15:36:00,38.8,26.6,29.20,NNW,338,5.6,5.6,61,0.00,,---,0.00,VWS V13.01,2013-03-06 20:36:00,
2013-03-06 15:37:00,38.8,26.6,29.20,WNW,292,5.4,5.6,61,0.00,,---,0.00,VWS V13.01,2013-03-06 20:37:00,
2013-03-06 15:38:00,38.8,26.6,29.20,NNE,22,7.2,7.2,61,0.00,,---,0.00,VWS V13.01,2013-03-06 20:38:00,
2013-03-06 15:41:00,38.8,26.6,29.20,North,0,4.0,4.0,61,0.00,,---,0.00,VWS V13.01,2013-03-06 20:41:00,
2013-03-06 15:42:00,38.8,26.6,29.20,North,0,4.0,4.0,61,0.00,,---,0.00,VWS V13.01,2013-03-06 20:42:00,
2013-03-06 15:43:00,38.8,26.6,29.20,WNW,292,5.6,5.6,61,0.00,,---,0.00,VWS V13.01,2013-03-06 20:43:00,
2013-03-06 15:46:00,38.8,26.6,29.20,NNW,338,1.3,1.3,61,0.00,,---,0.00,VWS V13.01,2013-03-06 20:46:00,
2013-03-06 15:47:00,38.8,26.2,29.20,SSE,158,6.0,6.0,60,0.00,,---,0.00,VWS V13.01,2013-03-06 20:47:00,
2013-03-06 15:49:00,38.8,26.2,29.20,SSE,158,6.0,6.0,60,0.00,,---,0.00,VWS V13.01,2013-03-06 20:49:00,
2013-03-06 15:51:00,38.8,26.2,29.20,NE,45,2.9,2.9,60,0.00,,---,0.00,VWS V13.01,2013-03-06 20:51:00,
2013-03-06 15:52:00,38.8,26.2,29.20,NE,45,2.9,2.9,60,0.00,,---,0.00,VWS V13.01,2013-03-06 20:52:00,
2013-03-06 15:53:00,38.8,26.2,29.20,NE,45,2.9,2.9,60,0.00,,---,0.00,VWS V13.01,2013-03-06 20:53:00,
2013-03-06 15:54:00,38.8,26.2,29.20,NE,45,4.0,4.0,60,0.00,,---,0.00,VWS V13.01,2013-03-06 20:54:00,
2013-03-06 15:57:00,38.8,26.2,29.20,South,180,0.0,0.0,60,0.00,,---,0.00,VWS V13.01,2013-03-06 20:57:00,
2013-03-06 15:58:00,38.8,26.2,29.20,SSE,158,1.3,1.3,60,0.00,,---,0.00,VWS V13.01,2013-03-06 20:58:00,
2013-03-06 15:59:00,38.8,26.2,29.20,SSE,158,1.3,1.3,60,0.00,,---,0.00,VWS V13.01,2013-03-06 20:59:00,
2013-03-06 16:02:00,38.8,26.2,29.20,NE,45,3.1,3.1,60,0.00,,---,0.00,VWS V13.01,2013-03-06 21:02:00,
2013-03-06 16:03:00,38.8,26.2,29.20,ESE,112,3.4,3.4,60,0.00,,---,0.00,VWS V13.01,2013-03-06 21:03:00,
2013-03-06 16:04:00,38.8,26.2,29.20,ESE,112,3.4,3.4,60,0.00,,---,0.00,VWS V13.01,2013-03-06 21:04:00,
2013-03-06 16:07:00,38.8,26.2,29.20,ESE,112,3.4,3.4,60,0.00,,---,0.00,VWS V13.01,2013-03-06 21:07:00,
2013-03-06 16:08:00,38.8,26.2,29.20,NNW,338,3.1,3.4,60,0.00,,---,0.00,VWS V13.01,2013-03-06 21:08:00,
2013-03-06 16:09:00,38.8,26.2,29.20,NNW,338,3.1,3.1,60,0.00,,---,0.00,VWS V13.01,2013-03-06 21:09:00,
2013-03-06 16:12:00,38.8,26.2,29.20,NNE,22,4.3,4.3,60,0.00,,---,0.00,VWS V13.01,2013-03-06 21:12:00,
2013-03-06 16:13:00,38.8,26.2,29.20,NNE,22,4.3,4.3,60,0.00,,---,0.00,VWS V13.01,2013-03-06 21:13:00,
2013-03-06 16:14:00,38.8,26.2,29.20,SE,135,2.5,4.3,60,0.00,,---,0.00,VWS V13.01,2013-03-06 21:14:00,
2013-03-06 16:17:00,38.8,26.2,29.20,NW,315,3.8,3.8,60,0.00,,---,0.00,VWS V13.01,2013-03-06 21:17:00,
2013-03-06 16:18:00,38.8,26.2,29.20,NW,315,3.8,3.8,60,0.00,,---,0.00,VWS V13.01,2013-03-06 21:18:00,
2013-03-06 16:19:00,38.8,26.2,29.20,NE,45,3.6,3.8,60,0.00,,---,0.00,VWS V13.01,2013-03-06 21:19:00,
2013-03-06 16:22:00,38.8,26.2,29.20,NE,45,3.6,3.6,60,0.00,,---,0.00,VWS V13.01,2013-03-06 21:22:00,
2013-03-06 16:23:00,38.8,26.2,29.20,NE,45,3.6,3.6,60,0.00,,---,0.00,VWS V13.01,2013-03-06 21:23:00,
2013-03-06 16:24:00,38.8,26.2,29.20,NE,45,3.6,3.6,60,0.00,,---,0.00,VWS V13.01,2013-03-06 21:24:00,
2013-03-06 16:27:00,38.8,26.2,29.20,NW,315,7.6,7.6,60,0.00,,---,0.00,VWS V13.01,2013-03-06 21:27:00,
2013-03-06 16:28:00,38.8,26.2,29.20,South,180,3.4,7.6,60,0.00,,---,0.00,VWS V13.01,2013-03-06 21:28:00,
2013-03-06 16:29:00,38.8,26.2,29.20,South,180,3.4,7.6,60,0.00,,---,0.00,VWS V13.01,2013-03-06 21:29:00,
2013-03-06 16:32:00,38.8,26.2,29.20,ESE,112,2.0,2.0,60,0.00,,---,0.00,VWS V13.01,2013-03-06 21:32:00,
2013-03-06 16:33:00,38.8,26.2,29.20,South,180,2.5,5.6,60,0.00,,---,0.00,VWS V13.01,2013-03-06 21:33:00,
2013-03-06 16:34:00,38.8,26.2,29.20,South,180,2.5,2.5,60,0.00,,---,0.00,VWS V13.01,2013-03-06 21:34:00,
2013-03-06 16:37:00,38.8,26.2,29.20,North,0,2.7,7.6,60,0.00,,---,0.00,VWS V13.01,2013-03-06 21:37:00,
2013-03-06 16:38:00,38.8,26.2,29.20,North,0,3.8,3.8,60,0.00,,---,0.00,VWS V13.01,2013-03-06 21:38:00,
2013-03-06 16:39:00,38.8,26.2,29.20,SSE,158,0.0,3.8,60,0.00,,---,0.00,VWS V13.01,2013-03-06 21:39:00,
2013-03-06 16:42:00,38.5,26.2,29.20,SSE,158,0.0,0.0,61,0.00,,---,0.00,VWS V13.01,2013-03-06 21:42:00,
2013-03-06 16:43:00,38.5,26.2,29.20,North,0,3.1,3.1,61,0.00,,---,0.00,VWS V13.01,2013-03-06 21:43:00,
2013-03-06 16:44:00,38.5,26.2,29.20,North,0,3.1,3.1,61,0.00,,---,0.00,VWS V13.01,2013-03-06 21:44:00,
2013-03-06 16:45:00,38.5,26.2,29.20,ESE,112,2.7,2.7,61,0.00,,---,0.00,VWS V13.01,2013-03-06 21:45:00,
2013-03-06 16:47:00,38.5,26.2,29.20,ESE,112,2.7,2.7,61,0.00,,---,0.00,VWS V13.01,2013-03-06 21:47:00,
2013-03-06 16:48:00,38.5,26.2,29.20,SSW,202,2.5,2.7,61,0.00,,---,0.00,VWS V13.01,2013-03-06 21:48:00,
2013-03-06 16:49:00,38.5,26.2,29.20,SSW,202,2.5,2.5,61,0.00,,---,0.00,VWS V13.01,2013-03-06 21:49:00,
2013-03-06 16:50:00,38.5,26.2,29.20,SSW,202,1.3,1.3,61,0.00,,---,0.00,VWS V13.01,2013-03-06 21:50:00,
2013-03-06 16:53:00,38.5,26.2,29.23,NNW,338,2.7,2.7,61,0.00,,---,0.00,VWS V13.01,2013-03-06 21:53:00,
2013-03-06 16:54:00,38.5,26.2,29.23,North,0,6.0,6.0,61,0.00,,---,0.00,VWS V13.01,2013-03-06 21:54:00,
2013-03-06 16:55:00,38.5,26.2,29.23,North,0,6.0,6.0,61,0.00,,---,0.00,VWS V13.01,2013-03-06 21:55:00,
2013-03-06 16:58:00,38.5,26.2,29.23,NNW,338,3.6,3.6,61,0.00,,---,0.00,VWS V13.01,2013-03-06 21:58:00,
2013-03-06 16:59:00,38.5,26.2,29.23,North,0,3.4,3.4,61,0.00,,---,0.00,VWS V13.01,2013-03-06 21:59:00,
2013-03-06 17:00:00,38.5,26.2,29.23,SSE,158,3.1,3.1,61,0.00,,---,0.00,VWS V13.01,2013-03-06 22:00:00,
2013-03-06 17:03:00,38.3,26.0,29.23,East,90,3.8,3.8,61,0.00,,---,0.00,VWS V13.01,2013-03-06 22:03:00,
2013-03-06 17:04:00,38.3,26.0,29.23,East,90,3.8,3.8,61,0.00,,---,0.00,VWS V13.01,2013-03-06 22:04:00,
2013-03-06 17:05:00,38.3,26.0,29.23,East,90,3.8,3.8,61,0.00,,---,0.00,VWS V13.01,2013-03-06 22:05:00,
2013-03-06 17:08:00,38.3,26.0,29.23,SSE,158,2.2,6.0,61,0.00,,---,0.00,VWS V13.01,2013-03-06 22:08:00,
2013-03-06 17:09:00,38.3,26.0,29.23,SSE,158,2.2,2.2,61,0.00,,---,0.00,VWS V13.01,2013-03-06 22:09:00,
2013-03-06 17:10:00,38.3,26.0,29.23,NNW,338,6.3,6.3,61,0.00,,---,0.00,VWS V13.01,2013-03-06 22:10:00,
2013-03-06 17:13:00,38.3,26.0,29.23,North,0,2.7,4.0,61,0.00,,---,0.00,VWS V13.01,2013-03-06 22:13:00,
2013-03-06 17:14:00,38.3,26.0,29.23,NW,315,8.7,8.7,61,0.00,,---,0.00,VWS V13.01,2013-03-06 22:14:00,
2013-03-06 17:15:00,38.3,26.0,29.23,SW,225,3.4,3.4,61,0.00,,---,0.00,VWS V13.01,2013-03-06 22:15:00,
2013-03-06 17:18:00,38.3,26.0,29.23,WSW,248,2.0,2.0,61,0.00,,---,0.00,VWS V13.01,2013-03-06 22:18:00,
2013-03-06 17:19:00,38.3,26.0,29.23,WSW,248,2.0,2.0,61,0.00,,---,0.00,VWS V13.01,2013-03-06 22:19:00,
2013-03-06 17:20:00,38.3,26.0,29.23,WSW,248,2.0,2.0,61,0.00,,---,0.00,VWS V13.01,2013-03-06 22:20:00,
2013-03-06 17:24:00,38.3,26.0,29.23,North,0,1.1,1.1,61,0.00,,---,0.00,VWS V13.01,2013-03-06 22:24:00,
2013-03-06 17:25:00,38.1,25.9,29.23,NE,45,0.0,0.0,61,0.00,,---,0.00,VWS V13.01,2013-03-06 22:25:00,
2013-03-06 17:29:00,38.1,25.9,29.23,South,180,3.1,3.1,61,0.00,,---,0.00,VWS V13.01,2013-03-06 22:29:00,
2013-03-06 17:30:00,38.1,25.9,29.23,NW,315,4.0,4.0,61,0.00,,---,0.00,VWS V13.01,2013-03-06 22:30:00,
2013-03-06 17:34:00,38.1,25.9,29.23,East,90,3.4,3.4,61,0.00,,---,0.00,VWS V13.01,2013-03-06 22:34:00,
2013-03-06 17:35:00,38.1,25.9,29.23,NW,315,4.3,4.3,61,0.00,,---,0.00,VWS V13.01,2013-03-06 22:35:00,
2013-03-06 17:36:00,38.1,25.9,29.23,NW,315,4.3,4.3,61,0.00,,---,0.00,VWS V13.01,2013-03-06 22:36:00,
2013-03-06 17:39:00,38.1,25.9,29.23,SW,225,1.6,5.8,61,0.00,,---,0.00,VWS V13.01,2013-03-06 22:39:00,
2013-03-06 17:40:00,38.1,25.9,29.23,SW,225,1.6,1.6,61,0.00,,---,0.00,VWS V13.01,2013-03-06 22:40:00,
2013-03-06 17:41:00,38.1,25.9,29.23,SW,225,1.6,1.6,61,0.00,,---,0.00,VWS V13.01,2013-03-06 22:41:00,
2013-03-06 17:44:00,38.1,25.9,29.23,East,90,3.1,3.1,61,0.00,,---,0.00,VWS V13.01,2013-03-06 22:44:00,
2013-03-06 17:45:00,38.1,25.9,29.23,East,90,3.1,3.1,61,0.00,,---,0.00,VWS V13.01,2013-03-06 22:45:00,
2013-03-06 17:46:00,38.1,25.9,29.23,ESE,112,2.0,2.0,61,0.00,,---,0.00,VWS V13.01,2013-03-06 22:46:00,
2013-03-06 17:49:00,37.6,25.8,29.23,ESE,112,2.0,2.0,62,0.00,,---,0.00,VWS V13.01,2013-03-06 22:49:00,
2013-03-06 17:50:00,37.6,25.8,29.23,ESE,112,2.0,2.0,62,0.00,,---,0.00,VWS V13.01,2013-03-06 22:50:00,
2013-03-06 17:52:00,37.6,25.8,29.23,ESE,112,2.0,2.0,62,0.00,,---,0.00,VWS V13.01,2013-03-06 22:52:00,
2013-03-06 17:54:00,37.6,25.8,29.23,NE,45,0.0,3.1,62,0.00,,---,0.00,VWS V13.01,2013-03-06 22:54:00,
2013-03-06 17:55:00,37.6,25.8,29.23,NE,45,0.0,3.1,62,0.00,,---,0.00,VWS V13.01,2013-03-06 22:55:00,
2013-03-06 17:58:00,37.6,25.4,29.23,NNW,338,3.1,3.1,61,0.00,,---,0.00,VWS V13.01,2013-03-06 22:58:00,
2013-03-06 17:59:00,37.6,25.4,29.23,North,0,2.9,2.9,61,0.00,,---,0.00,VWS V13.01,2013-03-06 22:59:00,
2013-03-06 18:00:00,37.6,25.4,29.23,North,0,2.9,2.9,61,0.00,,---,0.00,VWS V13.01,2013-03-06 23:00:00,
2013-03-06 18:01:00,37.6,25.4,29.23,ESE,112,3.8,3.8,61,0.00,,---,0.00,VWS V13.01,2013-03-06 23:01:00,
2013-03-06 18:03:00,37.6,25.4,29.23,ESE,112,3.8,3.8,61,0.00,,---,0.00,VWS V13.01,2013-03-06 23:03:00,
2013-03-06 18:04:00,37.6,25.4,29.23,ESE,112,3.8,3.8,61,0.00,,---,0.00,VWS V13.01,2013-03-06 23:04:00,
2013-03-06 18:05:00,37.6,25.4,29.23,ESE,112,3.8,3.8,61,0.00,,---,0.00,VWS V13.01,2013-03-06 23:05:00,
2013-03-06 18:06:00,37.6,25.4,29.23,NE,45,8.5,8.5,61,0.00,,---,0.00,VWS V13.01,2013-03-06 23:06:00,
2013-03-06 18:08:00,37.6,25.4,29.23,ESE,112,2.0,2.7,61,0.00,,---,0.00,VWS V13.01,2013-03-06 23:08:00,
2013-03-06 18:10:00,37.6,25.4,29.23,ESE,112,2.0,2.7,61,0.00,,---,0.00,VWS V13.01,2013-03-06 23:10:00,
2013-03-06 18:11:00,37.6,25.4,29.23,North,0,4.0,4.0,61,0.00,,---,0.00,VWS V13.01,2013-03-06 23:11:00,
2013-03-06 18:13:00,37.6,25.4,29.23,North,0,4.0,4.0,61,0.00,,---,0.00,VWS V13.01,2013-03-06 23:13:00,
2013-03-06 18:15:00,37.6,25.4,29.23,North,0,4.0,4.0,61,0.00,,---,0.00,VWS V13.01,2013-03-06 23:15:00,
2013-03-06 18:16:00,37.6,25.4,29.23,NW,315,4.0,4.0,61,0.00,,---,0.00,VWS V13.01,2013-03-06 23:16:00,
2013-03-06 18:18:00,37.6,25.4,29.23,South,180,1.6,4.0,61,0.00,,---,0.00,VWS V13.01,2013-03-06 23:18:00,
2013-03-06 18:20:00,37.6,25.4,29.23,West,270,3.8,3.8,61,0.00,,---,0.00,VWS V13.01,2013-03-06 23:20:00,
2013-03-06 18:21:00,37.6,25.4,29.23,NNW,338,3.6,3.6,61,0.00,,---,0.00,VWS V13.01,2013-03-06 23:21:00,
2013-03-06 18:23:00,37.6,25.4,29.23,NNW,338,3.6,3.6,61,0.00,,---,0.00,VWS V13.01,2013-03-06 23:23:00,
2013-03-06 18:25:00,37.6,25.4,29.23,NNW,338,3.6,3.6,61,0.00,,---,0.00,VWS V13.01,2013-03-06 23:25:00,
2013-03-06 18:27:00,37.0,25.6,29.23,SE,135,2.5,2.5,63,0.00,,---,0.00,VWS V13.01,2013-03-06 23:27:00,
2013-03-06 18:28:00,37.0,25.6,29.23,SE,135,2.5,2.5,63,0.00,,---,0.00,VWS V13.01,2013-03-06 23:28:00,
2013-03-06 18:30:00,37.0,25.6,29.23,SE,135,2.5,2.5,63,0.00,,---,0.00,VWS V13.01,2013-03-06 23:30:00,
2013-03-06 18:32:00,37.0,25.6,29.23,SE,135,2.5,2.5,63,0.00,,---,0.00,VWS V13.01,2013-03-06 23:32:00,
2013-03-06 18:33:00,37.0,25.6,29.23,SE,135,2.5,2.5,63,0.00,,---,0.00,VWS V13.01,2013-03-06 23:33:00,
2013-03-06 18:35:00,37.0,25.6,29.23,NNE,22,6.0,6.0,63,0.00,,---,0.00,VWS V13.01,2013-03-06 23:35:00,
2013-03-06 18:37:00,37.0,25.6,29.23,ESE,112,7.8,7.8,63,0.00,,---,0.00,VWS V13.01,2013-03-06 23:37:00,
2013-03-06 18:38:00,37.0,25.6,29.23,ESE,112,7.8,7.8,63,0.00,,---,0.00,VWS V13.01,2013-03-06 23:38:00,
2013-03-06 18:40:00,37.0,25.6,29.23,ESE,112,7.8,7.8,63,0.00,,---,0.00,VWS V13.01,2013-03-06 23:40:00,
2013-03-06 18:42:00,36.9,25.8,29.23,ESE,112,7.8,7.8,64,0.00,,---,0.00,VWS V13.01,2013-03-06 23:42:00,
2013-03-06 18:43:00,36.9,25.8,29.23,ESE,112,7.8,7.8,64,0.00,,---,0.00,VWS V13.01,2013-03-06 23:43:00,
2013-03-06 18:45:00,36.9,25.8,29.23,North,0,2.0,2.0,64,0.00,,---,0.00,VWS V13.01,2013-03-06 23:45:00,
2013-03-06 18:46:00,36.9,25.8,29.23,NNE,22,4.7,4.7,64,0.00,,---,0.00,VWS V13.01,2013-03-06 23:46:00,
2013-03-06 18:47:00,36.9,25.8,29.23,NNE,22,4.7,4.7,64,0.00,,---,0.00,VWS V13.01,2013-03-06 23:47:00,
2013-03-06 18:48:00,36.9,25.8,29.23,NNE,22,4.7,4.7,64,0.00,,---,0.00,VWS V13.01,2013-03-06 23:48:00,
2013-03-06 18:50:00,36.7,25.7,29.23,NNE,22,4.7,4.7,64,0.00,,---,0.00,VWS V13.01,2013-03-06 23:50:00,
2013-03-06 18:51:00,36.7,25.7,29.23,NNE,22,4.7,4.7,64,0.00,,---,0.00,VWS V13.01,2013-03-06 23:51:00,
2013-03-06 18:52:00,36.7,25.7,29.23,South,180,3.4,3.4,64,0.00,,---,0.00,VWS V13.01,2013-03-06 23:52:00,
2013-03-06 18:53:00,36.7,25.7,29.23,South,180,3.4,3.4,64,0.00,,---,0.00,VWS V13.01,2013-03-06 23:53:00,
2013-03-06 18:56:00,36.7,25.7,29.23,NE,45,5.4,5.4,64,0.00,,---,0.00,VWS V13.01,2013-03-06 23:56:00,
2013-03-06 18:57:00,36.7,25.7,29.23,SSE,158,4.0,5.4,64,0.00,,---,0.00,VWS V13.01,2013-03-06 23:57:00,
2013-03-06 18:58:00,36.7,25.7,29.23,SSE,158,4.0,4.0,64,0.00,,---,0.00,VWS V13.01,2013-03-06 23:58:00,
2013-03-06 19:01:00,36.7,25.7,29.23,SSE,158,4.0,4.0,64,0.00,,---,0.00,VWS V13.01,2013-03-07 00:01:00,
2013-03-06 19:03:00,36.7,25.7,29.23,WSW,248,4.7,4.7,64,0.00,,---,0.00,VWS V13.01,2013-03-07 00:03:00,
2013-03-06 19:04:00,36.7,25.7,29.23,WSW,248,4.7,4.7,64,0.00,,---,0.00,VWS V13.01,2013-03-07 00:04:00,
2013-03-06 19:06:00,36.7,25.7,29.23,WSW,248,4.7,4.7,64,0.00,,---,0.00,VWS V13.01,2013-03-07 00:06:00,
2013-03-06 19:08:00,36.7,25.7,29.23,WSW,248,4.7,4.7,64,0.00,,---,0.00,VWS V13.01,2013-03-07 00:08:00,
2013-03-06 19:09:00,36.7,25.7,29.23,WSW,248,4.7,4.7,64,0.00,,---,0.00,VWS V13.01,2013-03-07 00:09:00,
2013-03-06 19:11:00,36.7,25.7,29.23,WSW,248,4.7,4.7,64,0.00,,---,0.00,VWS V13.01,2013-03-07 00:11:00,
2013-03-06 19:13:00,36.1,25.5,29.23,WSW,248,4.7,4.7,65,0.00,,---,0.00,VWS V13.01,2013-03-07 00:13:00,
2013-03-06 19:14:00,36.1,25.5,29.23,WSW,248,4.7,4.7,65,0.00,,---,0.00,VWS V13.01,2013-03-07 00:14:00,
2013-03-06 19:16:00,36.1,25.5,29.23,WSW,248,4.7,4.7,65,0.00,,---,0.00,VWS V13.01,2013-03-07 00:16:00,
2013-03-06 19:18:00,36.1,25.5,29.23,WSW,248,4.7,4.7,65,0.00,,---,0.00,VWS V13.01,2013-03-07 00:18:00,
2013-03-06 19:19:00,36.0,25.4,29.23,WSW,248,4.7,4.7,65,0.00,,---,0.00,VWS V13.01,2013-03-07 00:19:00,
2013-03-06 19:21:00,36.0,25.4,29.23,WSW,248,4.7,4.7,65,0.00,,---,0.00,VWS V13.01,2013-03-07 00:21:00,
2013-03-06 19:23:00,36.0,25.4,29.23,WSW,248,4.7,4.7,65,0.00,,---,0.00,VWS V13.01,2013-03-07 00:23:00,
2013-03-06 19:24:00,36.0,25.4,29.23,WSW,248,4.7,4.7,65,0.00,,---,0.00,VWS V13.01,2013-03-07 00:24:00,
2013-03-06 19:26:00,36.0,25.4,29.23,WSW,248,4.7,4.7,65,0.00,,---,0.00,VWS V13.01,2013-03-07 00:26:00,
2013-03-06 19:28:00,35.8,25.2,29.23,WSW,248,4.7,4.7,65,0.00,,---,0.00,VWS V13.01,2013-03-07 00:28:00,
2013-03-06 19:29:00,35.8,25.2,29.23,WSW,248,4.7,4.7,65,0.00,,---,0.00,VWS V13.01,2013-03-07 00:29:00,
2013-03-06 19:31:00,35.8,25.2,29.23,WSW,248,4.7,4.7,65,0.00,,---,0.00,VWS V13.01,2013-03-07 00:31:00,
2013-03-06 19:33:00,35.8,25.5,29.23,WSW,248,4.7,4.7,66,0.00,,---,0.00,VWS V13.01,2013-03-07 00:33:00,
2013-03-06 19:35:00,35.8,25.5,29.23,WSW,248,4.7,4.7,66,0.00,,---,0.00,VWS V13.01,2013-03-07 00:35:00,
2013-03-06 19:36:00,35.8,25.5,29.23,WSW,248,4.7,4.7,66,0.00,,---,0.00,VWS V13.01,2013-03-07 00:36:00,
2013-03-06 19:39:00,35.8,25.5,29.23,WSW,248,4.7,4.7,66,0.00,,---,0.00,VWS V13.01,2013-03-07 00:39:00,
2013-03-06 19:40:00,35.8,25.5,29.23,WSW,248,4.7,4.7,66,0.00,,---,0.00,VWS V13.01,2013-03-07 00:40:00,
2013-03-06 19:41:00,35.8,25.5,29.23,WSW,248,4.7,4.7,66,0.00,,---,0.00,VWS V13.01,2013-03-07 00:41:00,
2013-03-06 19:42:00,35.8,25.5,29.23,WSW,248,4.7,4.7,66,0.00,,---,0.00,VWS V13.01,2013-03-07 00:42:00,
2013-03-06 19:44:00,35.8,25.5,29.23,WSW,248,4.7,4.7,66,0.00,,---,0.00,VWS V13.01,2013-03-07 00:44:00,
2013-03-06 19:45:00,35.6,25.4,29.23,NW,315,1.3,4.7,66,0.00,,---,0.00,VWS V13.01,2013-03-07 00:45:00,
2013-03-06 19:46:00,35.6,25.4,29.23,NW,315,1.3,1.3,66,0.00,,---,0.00,VWS V13.01,2013-03-07 00:46:00,
2013-03-06 19:47:00,35.6,25.4,29.23,NW,315,1.3,1.3,66,0.00,,---,0.00,VWS V13.01,2013-03-07 00:47:00,
2013-03-06 19:49:00,35.6,25.4,29.23,NW,315,1.3,1.3,66,0.00,,---,0.00,VWS V13.01,2013-03-07 00:49:00,
2013-03-06 19:50:00,35.6,25.0,29.23,SSW,202,2.0,2.0,65,0.00,,---,0.00,VWS V13.01,2013-03-07 00:50:00,
2013-03-06 19:51:00,35.6,25.0,29.23,SSW,202,2.0,2.0,65,0.00,,---,0.00,VWS V13.01,2013-03-07 00:51:00,
2013-03-06 19:52:00,35.6,25.0,29.23,SSW,202,2.0,2.0,65,0.00,,---,0.00,VWS V13.01,2013-03-07 00:52:00,
2013-03-06 19:54:00,35.6,25.0,29.23,NE,45,2.7,2.7,65,0.00,,---,0.00,VWS V13.01,2013-03-07 00:54:00,
2013-03-06 19:55:00,35.6,25.0,29.23,NE,45,2.7,2.7,65,0.00,,---,0.00,VWS V13.01,2013-03-07 00:55:00,
2013-03-06 19:56:00,35.6,25.0,29.23,NE,45,2.7,2.7,65,0.00,,---,0.00,VWS V13.01,2013-03-07 00:56:00,
2013-03-06 19:57:00,35.6,25.0,29.23,NE,45,2.7,2.7,65,0.00,,---,0.00,VWS V13.01,2013-03-07 00:57:00,
2013-03-06 19:59:00,35.6,25.0,29.23,NE,45,1.3,1.3,65,0.00,,---,0.00,VWS V13.01,2013-03-07 00:59:00,
2013-03-06 20:01:00,35.6,25.0,29.23,NE,45,1.3,1.3,65,0.00,,---,0.00,VWS V13.01,2013-03-07 01:01:00,
2013-03-06 20:03:00,35.6,25.0,29.23,NE,45,1.3,1.3,65,0.00,,---,0.00,VWS V13.01,2013-03-07 01:03:00,
2013-03-06 20:04:00,35.6,25.0,29.23,NE,45,1.3,1.3,65,0.00,,---,0.00,VWS V13.01,2013-03-07 01:04:00,
2013-03-06 20:06:00,35.6,25.0,29.23,NE,45,1.3,1.3,65,0.00,,---,0.00,VWS V13.01,2013-03-07 01:06:00,
2013-03-06 20:08:00,35.6,25.0,29.23,NNW,338,5.8,5.8,65,0.00,,---,0.00,VWS V13.01,2013-03-07 01:08:00,
2013-03-06 20:10:00,35.6,25.0,29.23,NNW,338,5.8,5.8,65,0.00,,---,0.00,VWS V13.01,2013-03-07 01:10:00,
2013-03-06 20:11:00,35.6,25.0,29.23,NNW,338,5.8,5.8,65,0.00,,---,0.00,VWS V13.01,2013-03-07 01:11:00,
2013-03-06 20:13:00,35.6,25.0,29.23,NNW,338,5.8,5.8,65,0.00,,---,0.00,VWS V13.01,2013-03-07 01:13:00,
2013-03-06 20:15:00,35.8,25.2,29.23,NNW,338,5.8,5.8,65,0.00,,---,0.00,VWS V13.01,2013-03-07 01:15:00,
2013-03-06 20:16:00,35.8,24.8,29.23,NNW,338,5.8,5.8,64,0.00,,---,0.00,VWS V13.01,2013-03-07 01:16:00,
2013-03-06 20:18:00,35.8,24.8,29.23,NNW,338,5.8,5.8,64,0.00,,---,0.00,VWS V13.01,2013-03-07 01:18:00,
2013-03-06 20:20:00,35.6,24.6,29.23,SW,225,4.7,4.7,64,0.00,,---,0.00,VWS V13.01,2013-03-07 01:20:00,
2013-03-06 20:21:00,35.6,24.6,29.23,SW,225,4.7,4.7,64,0.00,,---,0.00,VWS V13.01,2013-03-07 01:21:00,
2013-03-06 20:23:00,35.6,24.6,29.23,North,0,4.9,4.9,64,0.00,,---,0.00,VWS V13.01,2013-03-07 01:23:00,
2013-03-06 20:25:00,35.6,24.6,29.23,North,0,4.9,4.9,64,0.00,,---,0.00,VWS V13.01,2013-03-07 01:25:00,
2013-03-06 20:26:00,35.6,24.6,29.23,ESE,112,3.1,4.9,64,0.00,,---,0.00,VWS V13.01,2013-03-07 01:26:00,
2013-03-06 20:27:00,35.6,24.6,29.23,ESE,112,3.1,4.9,64,0.00,,---,0.00,VWS V13.01,2013-03-07 01:27:00,
2013-03-06 20:29:00,35.6,24.6,29.23,ESE,112,3.1,3.1,64,0.00,,---,0.00,VWS V13.01,2013-03-07 01:29:00,
2013-03-06 20:30:00,35.6,24.6,29.23,ESE,112,3.1,3.1,64,0.00,,---,0.00,VWS V13.01,2013-03-07 01:30:00,
2013-03-06 20:32:00,35.6,24.6,29.23,ESE,112,3.1,3.1,64,0.00,,---,0.00,VWS V13.01,2013-03-07 01:32:00,
2013-03-06 20:34:00,35.6,24.6,29.23,ESE,112,3.1,3.1,64,0.00,,---,0.00,VWS V13.01,2013-03-07 01:34:00,
2013-03-06 20:35:00,35.6,24.6,29.23,ESE,112,3.1,3.1,64,0.00,,---,0.00,VWS V13.01,2013-03-07 01:35:00,
2013-03-06 20:37:00,35.6,24.6,29.23,ESE,112,3.1,3.1,64,0.00,,---,0.00,VWS V13.01,2013-03-07 01:37:00,
2013-03-06 20:39:00,35.6,24.6,29.23,ESE,112,3.1,3.1,64,0.00,,---,0.00,VWS V13.01,2013-03-07 01:39:00,
2013-03-06 20:40:00,35.6,24.6,29.23,ENE,68,5.8,5.8,64,0.00,,---,0.00,VWS V13.01,2013-03-07 01:40:00,
2013-03-06 20:42:00,35.6,24.6,29.23,South,180,3.4,3.4,64,0.00,,---,0.00,VWS V13.01,2013-03-07 01:42:00,
2013-03-06 20:44:00,35.6,24.6,29.23,South,180,3.4,3.4,64,0.00,,---,0.00,VWS V13.01,2013-03-07 01:44:00,
2013-03-06 20:46:00,35.6,24.6,29.23,South,180,3.4,3.4,64,0.00,,---,0.00,VWS V13.01,2013-03-07 01:46:00,
2013-03-06 20:47:00,35.6,24.6,29.23,South,180,3.4,3.4,64,0.00,,---,0.00,VWS V13.01,2013-03-07 01:47:00,
2013-03-06 20:49:00,35.6,24.6,29.23,West,270,6.5,6.5,64,0.00,,---,0.00,VWS V13.01,2013-03-07 01:49:00,
2013-03-06 20:51:00,35.6,24.6,29.23,West,270,6.5,6.5,64,0.00,,---,0.00,VWS V13.01,2013-03-07 01:51:00,
2013-03-06 20:52:00,35.6,24.6,29.23,West,270,6.5,6.5,64,0.00,,---,0.00,VWS V13.01,2013-03-07 01:52:00,
2013-03-06 20:54:00,35.6,24.6,29.23,WSW,248,3.6,3.6,64,0.00,,---,0.00,VWS V13.01,2013-03-07 01:54:00,
2013-03-06 20:56:00,35.6,24.6,29.23,WSW,248,3.6,3.6,64,0.00,,---,0.00,VWS V13.01,2013-03-07 01:56:00,
2013-03-06 20:57:00,35.6,24.6,29.23,WSW,248,3.6,3.6,64,0.00,,---,0.00,VWS V13.01,2013-03-07 01:57:00,
2013-03-06 20:59:00,35.6,24.6,29.23,WSW,248,3.6,3.6,64,0.00,,---,0.00,VWS V13.01,2013-03-07 01:59:00,
2013-03-06 21:01:00,35.6,24.6,29.23,WSW,248,3.6,3.6,64,0.00,,---,0.00,VWS V13.01,2013-03-07 02:01:00,
2013-03-06 21:02:00,35.6,24.6,29.23,WNW,292,3.1,3.1,64,0.00,,---,0.00,VWS V13.01,2013-03-07 02:02:00,
2013-03-06 21:04:00,35.6,24.6,29.23,WNW,292,3.1,3.1,64,0.00,,---,0.00,VWS V13.01,2013-03-07 02:04:00,
2013-03-06 21:06:00,35.6,24.6,29.23,NNW,338,2.0,2.0,64,0.00,,---,0.00,VWS V13.01,2013-03-07 02:06:00,
2013-03-06 21:07:00,35.6,24.6,29.23,SSW,202,3.1,3.1,64,0.00,,---,0.00,VWS V13.01,2013-03-07 02:07:00,
2013-03-06 21:09:00,35.6,24.6,29.23,SSW,202,3.1,3.1,64,0.00,,---,0.00,VWS V13.01,2013-03-07 02:09:00,
2013-03-06 21:11:00,35.6,24.6,29.23,SSW,202,3.1,3.1,64,0.00,,---,0.00,VWS V13.01,2013-03-07 02:11:00,
2013-03-06 21:13:00,35.6,24.6,29.23,SSW,202,3.1,3.1,64,0.00,,---,0.00,VWS V13.01,2013-03-07 02:13:00,
2013-03-06 21:14:00,35.6,24.6,29.23,SSW,202,3.1,3.1,64,0.00,,---,0.00,VWS V13.01,2013-03-07 02:14:00,
2013-03-06 21:16:00,35.6,24.6,29.23,SSW,202,3.1,3.1,64,0.00,,---,0.00,VWS V13.01,2013-03-07 02:16:00,
2013-03-06 21:18:00,35.6,24.6,29.23,SSW,202,3.1,3.1,64,0.00,,---,0.00,VWS V13.01,2013-03-07 02:18:00,
2013-03-06 21:19:00,35.6,24.6,29.23,SSW,202,3.1,3.1,64,0.00,,---,0.00,VWS V13.01,2013-03-07 02:19:00,
2013-03-06 21:22:00,35.4,24.5,29.23,SSW,202,3.1,3.1,64,0.00,,---,0.00,VWS V13.01,2013-03-07 02:22:00,
2013-03-06 21:23:00,35.4,24.5,29.23,SSW,202,3.1,3.1,64,0.00,,---,0.00,VWS V13.01,2013-03-07 02:23:00,
2013-03-06 21:24:00,35.4,24.5,29.23,SSW,202,3.1,3.1,64,0.00,,---,0.00,VWS V13.01,2013-03-07 02:24:00,
2013-03-06 21:27:00,35.4,24.5,29.23,ESE,112,2.5,2.5,64,0.00,,---,0.00,VWS V13.01,2013-03-07 02:27:00,
2013-03-06 21:28:00,35.4,24.5,29.23,ESE,112,2.5,2.5,64,0.00,,---,0.00,VWS V13.01,2013-03-07 02:28:00,
2013-03-06 21:29:00,35.4,24.5,29.23,ENE,68,1.3,1.3,64,0.00,,---,0.00,VWS V13.01,2013-03-07 02:29:00,
2013-03-06 21:32:00,35.4,24.5,29.23,ENE,68,1.3,1.3,64,0.00,,---,0.00,VWS V13.01,2013-03-07 02:32:00,
2013-03-06 21:33:00,35.4,24.5,29.23,ENE,68,1.3,1.3,64,0.00,,---,0.00,VWS V13.01,2013-03-07 02:33:00,
2013-03-06 21:34:00,35.4,24.5,29.23,ENE,68,1.3,1.3,64,0.00,,---,0.00,VWS V13.01,2013-03-07 02:34:00,
2013-03-06 21:37:00,35.4,24.5,29.23,ENE,68,1.3,1.3,64,0.00,,---,0.00,VWS V13.01,2013-03-07 02:37:00,
2013-03-06 21:38:00,35.4,24.5,29.23,ENE,68,1.3,1.3,64,0.00,,---,0.00,VWS V13.01,2013-03-07 02:38:00,
2013-03-06 21:40:00,35.4,24.5,29.23,ENE,68,1.3,1.3,64,0.00,,---,0.00,VWS V13.01,2013-03-07 02:40:00,
2013-03-06 21:42:00,35.4,24.5,29.23,ENE,68,1.3,1.3,64,0.00,,---,0.00,VWS V13.01,2013-03-07 02:42:00,
2013-03-06 21:43:00,35.4,24.5,29.23,ENE,68,1.3,1.3,64,0.00,,---,0.00,VWS V13.01,2013-03-07 02:43:00,
2013-03-06 21:45:00,35.4,24.5,29.23,ENE,68,1.3,1.3,64,0.00,,---,0.00,VWS V13.01,2013-03-07 02:45:00,
2013-03-06 21:47:00,35.4,24.5,29.23,ENE,68,1.3,1.3,64,0.00,,---,0.00,VWS V13.01,2013-03-07 02:47:00,
2013-03-06 21:48:00,35.4,24.5,29.23,ENE,68,1.3,1.3,64,0.00,,---,0.00,VWS V13.01,2013-03-07 02:48:00,
2013-03-06 21:50:00,35.4,24.5,29.23,ENE,68,1.3,1.3,64,0.00,,---,0.00,VWS V13.01,2013-03-07 02:50:00,
2013-03-06 21:52:00,35.4,24.5,29.23,ENE,68,1.3,1.3,64,0.00,,---,0.00,VWS V13.01,2013-03-07 02:52:00,
2013-03-06 21:53:00,35.4,24.5,29.23,ENE,68,1.3,1.3,64,0.00,,---,0.00,VWS V13.01,2013-03-07 02:53:00,
2013-03-06 21:55:00,35.4,24.5,29.23,ENE,68,1.3,1.3,64,0.00,,---,0.00,VWS V13.01,2013-03-07 02:55:00,
2013-03-06 21:57:00,35.4,24.5,29.23,ENE,68,1.3,1.3,64,0.00,,---,0.00,VWS V13.01,2013-03-07 02:57:00,
2013-03-06 21:58:00,35.4,24.5,29.23,ENE,68,1.3,1.3,64,0.00,,---,0.00,VWS V13.01,2013-03-07 02:58:00,
2013-03-06 22:00:00,35.4,24.5,29.23,ENE,68,1.3,1.3,64,0.00,,---,0.00,VWS V13.01,2013-03-07 03:00:00,
2013-03-06 22:03:00,35.4,24.5,29.23,ENE,68,1.3,1.3,64,0.00,,---,0.00,VWS V13.01,2013-03-07 03:03:00,
2013-03-06 22:05:00,35.4,24.5,29.23,ENE,68,1.3,1.3,64,0.00,,---,0.00,VWS V13.01,2013-03-07 03:05:00,
2013-03-06 22:08:00,35.4,24.5,29.23,ENE,68,1.3,1.3,64,0.00,,---,0.00,VWS V13.01,2013-03-07 03:08:00,
2013-03-06 22:09:00,35.4,24.5,29.23,ENE,68,1.3,1.3,64,0.00,,---,0.00,VWS V13.01,2013-03-07 03:09:00,
2013-03-06 22:10:00,35.4,24.5,29.23,ENE,68,1.3,1.3,64,0.00,,---,0.00,VWS V13.01,2013-03-07 03:10:00,
2013-03-06 22:13:00,35.4,24.5,29.23,ENE,68,1.3,1.3,64,0.00,,---,0.00,VWS V13.01,2013-03-07 03:13:00,
2013-03-06 22:14:00,35.4,24.5,29.23,ENE,68,1.3,1.3,64,0.00,,---,0.00,VWS V13.01,2013-03-07 03:14:00,
2013-03-06 22:16:00,35.4,24.5,29.23,ENE,68,1.3,1.3,64,0.00,,---,0.00,VWS V13.01,2013-03-07 03:16:00,
2013-03-06 22:18:00,35.4,24.5,29.23,ENE,68,1.3,1.3,64,0.00,,---,0.00,VWS V13.01,2013-03-07 03:18:00,
2013-03-06 22:19:00,35.4,24.5,29.23,ENE,68,1.3,1.3,64,0.00,,---,0.00,VWS V13.01,2013-03-07 03:19:00,
2013-03-06 22:21:00,35.4,24.5,29.23,ENE,68,1.3,1.3,64,0.00,,---,0.00,VWS V13.01,2013-03-07 03:21:00,
2013-03-06 22:23:00,35.4,24.5,29.23,ENE,68,1.3,1.3,64,0.00,,---,0.00,VWS V13.01,2013-03-07 03:23:00,
2013-03-06 22:24:00,35.4,24.5,29.23,ENE,68,1.3,1.3,64,0.00,,---,0.00,VWS V13.01,2013-03-07 03:24:00,
2013-03-06 22:26:00,35.2,24.3,29.23,ENE,68,1.3,1.3,64,0.00,,---,0.00,VWS V13.01,2013-03-07 03:26:00,
2013-03-06 22:28:00,35.2,24.3,29.23,ENE,68,1.3,1.3,64,0.00,,---,0.00,VWS V13.01,2013-03-07 03:28:00,
2013-03-06 22:29:00,35.2,24.3,29.23,ENE,68,1.3,1.3,64,0.00,,---,0.00,VWS V13.01,2013-03-07 03:29:00,
2013-03-06 22:31:00,35.2,24.3,29.23,ENE,68,1.3,1.3,64,0.00,,---,0.00,VWS V13.01,2013-03-07 03:31:00,
2013-03-06 22:33:00,35.2,24.3,29.23,ENE,68,1.3,1.3,64,0.00,,---,0.00,VWS V13.01,2013-03-07 03:33:00,
2013-03-06 22:34:00,35.2,24.3,29.23,ENE,68,1.3,1.3,64,0.00,,---,0.00,VWS V13.01,2013-03-07 03:34:00,
2013-03-06 22:36:00,35.2,24.3,29.23,SSE,158,0.0,1.3,64,0.00,,---,0.00,VWS V13.01,2013-03-07 03:36:00,
2013-03-06 22:38:00,35.2,24.3,29.23,SSE,158,2.9,2.9,64,0.00,,---,0.00,VWS V13.01,2013-03-07 03:38:00,
2013-03-06 22:39:00,35.2,24.3,29.23,SSE,158,2.9,2.9,64,0.00,,---,0.00,VWS V13.01,2013-03-07 03:39:00,
2013-03-06 22:41:00,35.2,24.3,29.23,North,0,5.4,5.4,64,0.00,,---,0.00,VWS V13.01,2013-03-07 03:41:00,
2013-03-06 22:43:00,35.2,24.3,29.23,NW,315,4.3,5.4,64,0.00,,---,0.00,VWS V13.01,2013-03-07 03:43:00,
2013-03-06 22:44:00,35.2,24.3,29.23,NW,315,4.3,4.3,64,0.00,,---,0.00,VWS V13.01,2013-03-07 03:44:00,
2013-03-06 22:46:00,35.2,24.3,29.23,NW,315,4.3,4.3,64,0.00,,---,0.00,VWS V13.01,2013-03-07 03:46:00,
2013-03-06 22:48:00,35.2,24.3,29.23,NW,315,4.3,4.3,64,0.00,,---,0.00,VWS V13.01,2013-03-07 03:48:00,
2013-03-06 22:49:00,35.2,24.3,29.23,NW,315,4.3,4.3,64,0.00,,---,0.00,VWS V13.01,2013-03-07 03:49:00,
2013-03-06 22:50:00,35.2,24.3,29.23,NW,315,4.3,4.3,64,0.00,,---,0.00,VWS V13.01,2013-03-07 03:50:00,
2013-03-06 22:51:00,35.2,24.3,29.23,NW,315,4.3,4.3,64,0.00,,---,0.00,VWS V13.01,2013-03-07 03:51:00,
2013-03-06 22:53:00,35.2,24.3,29.23,NW,315,4.3,4.3,64,0.00,,---,0.00,VWS V13.01,2013-03-07 03:53:00,
2013-03-06 22:55:00,35.2,24.3,29.23,NW,315,4.3,4.3,64,0.00,,---,0.00,VWS V13.01,2013-03-07 03:55:00,
2013-03-06 22:56:00,35.2,24.3,29.23,NW,315,4.3,4.3,64,0.00,,---,0.00,VWS V13.01,2013-03-07 03:56:00,
2013-03-06 22:58:00,35.2,24.3,29.23,NW,315,4.3,4.3,64,0.00,,---,0.00,VWS V13.01,2013-03-07 03:58:00,
2013-03-06 23:00:00,35.1,24.1,29.23,NW,315,4.3,4.3,64,0.00,,---,0.00,VWS V13.01,2013-03-07 04:00:00,
2013-03-06 23:01:00,35.1,24.1,29.23,NW,315,4.3,4.3,64,0.00,,---,0.00,VWS V13.01,2013-03-07 04:01:00,
2013-03-06 23:04:00,35.1,24.1,29.23,NW,315,4.3,4.3,64,0.00,,---,0.00,VWS V13.01,2013-03-07 04:04:00,
2013-03-06 23:05:00,35.1,24.1,29.23,NW,315,4.3,4.3,64,0.00,,---,0.00,VWS V13.01,2013-03-07 04:05:00,
2013-03-06 23:06:00,35.1,24.1,29.23,NW,315,4.3,4.3,64,0.00,,---,0.00,VWS V13.01,2013-03-07 04:06:00,
2013-03-06 23:09:00,35.1,24.1,29.23,NW,315,4.3,4.3,64,0.00,,---,0.00,VWS V13.01,2013-03-07 04:09:00,
2013-03-06 23:10:00,35.1,24.1,29.23,NW,315,4.3,4.3,64,0.00,,---,0.00,VWS V13.01,2013-03-07 04:10:00,
2013-03-06 23:11:00,35.1,24.1,29.23,NW,315,4.3,4.3,64,0.00,,---,0.00,VWS V13.01,2013-03-07 04:11:00,
2013-03-06 23:14:00,35.1,24.1,29.23,NW,315,4.3,4.3,64,0.00,,---,0.00,VWS V13.01,2013-03-07 04:14:00,
2013-03-06 23:15:00,35.1,24.1,29.23,NW,315,4.3,4.3,64,0.00,,---,0.00,VWS V13.01,2013-03-07 04:15:00,
2013-03-06 23:16:00,35.1,24.1,29.23,NW,315,4.3,4.3,64,0.00,,---,0.00,VWS V13.01,2013-03-07 04:16:00,
2013-03-06 23:17:00,35.1,24.1,29.23,West,270,9.6,9.6,64,0.00,,---,0.00,VWS V13.01,2013-03-07 04:17:00,
2013-03-06 23:20:00,35.1,24.1,29.23,West,270,9.6,9.6,64,0.00,,---,0.00,VWS V13.01,2013-03-07 04:20:00,
2013-03-06 23:21:00,35.1,24.1,29.23,West,270,9.6,9.6,64,0.00,,---,0.00,VWS V13.01,2013-03-07 04:21:00,
2013-03-06 23:22:00,35.1,24.1,29.23,West,270,9.6,9.6,64,0.00,,---,0.00,VWS V13.01,2013-03-07 04:22:00,
2013-03-06 23:25:00,35.1,24.1,29.23,West,270,9.6,9.6,64,0.00,,---,0.00,VWS V13.01,2013-03-07 04:25:00,
2013-03-06 23:26:00,35.1,24.1,29.23,NW,315,7.8,9.6,64,0.00,,---,0.00,VWS V13.01,2013-03-07 04:26:00,
2013-03-06 23:27:00,35.1,24.1,29.23,NW,315,7.8,7.8,64,0.00,,---,0.00,VWS V13.01,2013-03-07 04:27:00,
2013-03-06 23:30:00,35.1,24.1,29.23,NW,315,7.8,7.8,64,0.00,,---,0.00,VWS V13.01,2013-03-07 04:30:00,
2013-03-06 23:31:00,35.1,24.1,29.23,NW,315,7.8,7.8,64,0.00,,---,0.00,VWS V13.01,2013-03-07 04:31:00,
2013-03-06 23:32:00,35.1,24.1,29.23,NW,315,7.8,7.8,64,0.00,,---,0.00,VWS V13.01,2013-03-07 04:32:00,
2013-03-06 23:35:00,35.1,24.1,29.23,NW,315,7.8,7.8,64,0.00,,---,0.00,VWS V13.01,2013-03-07 04:35:00,
2013-03-06 23:36:00,35.1,24.1,29.23,NW,315,7.8,7.8,64,0.00,,---,0.00,VWS V13.01,2013-03-07 04:36:00,
2013-03-06 23:37:00,35.1,24.1,29.23,NW,315,7.8,7.8,64,0.00,,---,0.00,VWS V13.01,2013-03-07 04:37:00,
2013-03-06 23:40:00,35.1,24.1,29.23,NW,315,7.8,7.8,64,0.00,,---,0.00,VWS V13.01,2013-03-07 04:40:00,
2013-03-06 23:41:00,35.1,24.1,29.23,NW,315,7.8,7.8,64,0.00,,---,0.00,VWS V13.01,2013-03-07 04:41:00,
2013-03-06 23:42:00,35.1,24.1,29.23,NW,315,7.8,7.8,64,0.00,,---,0.00,VWS V13.01,2013-03-07 04:42:00,
2013-03-06 23:46:00,34.9,24.3,29.23,NW,315,7.8,7.8,65,0.00,,---,0.00,VWS V13.01,2013-03-07 04:46:00,
2013-03-06 23:47:00,34.9,24.3,29.23,NW,315,7.8,7.8,65,0.00,,---,0.00,VWS V13.01,2013-03-07 04:47:00,
2013-03-06 23:51:00,34.9,24.7,29.23,NW,315,7.8,7.8,66,0.00,,---,0.00,VWS V13.01,2013-03-07 04:51:00,
2013-03-06 23:52:00,34.9,24.7,29.23,NW,315,7.8,7.8,66,0.00,,---,0.00,VWS V13.01,2013-03-07 04:52:00,
2013-03-06 23:56:00,34.9,24.7,29.23,NW,315,7.8,7.8,66,0.00,,---,0.00,VWS V13.01,2013-03-07 04:56:00,
2013-03-06 23:57:00,34.9,24.7,29.23,NW,315,7.8,7.8,66,0.00,,---,0.00,VWS V13.01,2013-03-07 04:57:00,